GFSFLT1_prec_cloud_003.txt.gz
Cloud_Cover
99 96 0 0 0 0 0 0 0 0 0 6 6 2 2 0 0 0 1 0 0 0 10 88 96 100 100 100 6 8 37 40 4
75 11 0 0 0 0 0 0 0 0 0 2 12 98 74 0 0 0 0 0 0 3 0 41 100 100 100 100 100 100 99 78 88
50 7 1 0 0 0 0 0 0 0 1 0 0 5 0 0 0 0 5 5 5 5 0 5 100 100 100 100 100 98 100 98 13
1 3 3 0 0 0 0 0 0 0 0 0 0 1 5 0 8 0 3 5 58 5 19 5 87 99 100 100 100 100 100 98 100
0 0 0 0 0 0 0 0 0 0 0 0 0 0 0 0 0 6 5 14 6 5 6 4 8 94 100 100 100 100 100 100 100
0 0 0 0 3 5 3 5 5 1 15 2 0 0 8 3 10 8 4 33 5 14 5 12 87 100 100 100 100 100 100 100 100
5 0 0 0 0 5 5 10 26 0 4 13 6 10 5 5 4 2 3 80 14 5 0 8 92 100 100 100 100 100 100 100 100
4 0 0 0 7 94 12 0 0 5 5 5 70 94 100 89 78 75 15 0 9 5 3 4 72 100 100 100 100 100 100 100 100
5 6 32 22 10 57 94 11 4 1 5 5 5 5 99 100 100 100 54 28 5 1 4 3 15 66 100 100 100 100 100 100 100
23 77 100 38 98 3 0 2 5 3 5 5 5 5 98 71 100 100 100 100 100 85 29 8 7 5 5 32 86 100 100 100 100
44 42 47 89 18 0 0 4 5 5 12 5 5 49 38 37 63 98 94 94 100 100 100 100 100 100 100 97 100 95 100 100 100
100 96 82 5 4 5 5 5 5 5 5 5 0 0 0 0 0 0 0 4 5 5 5 6 37 100 96 85 6 5 8 35 100
79 10 5 5 5 5 8 5 5 5 5 5 5 5 4 0 0 0 0 0 0 0 0 0 1 4 4 4 5 5 5 5 15
82 89 68 5 54 59 56 71 22 5 4 5 1 2 0 0 0 0 0 0 0 0 0 0 0 0 0 0 0 0 0 0 0
5 14 21 5 5 5 5 1 2 1 0 0 0 0 0 0 0 0 1 0 4 5 5 5 5 5 4 2 0 0 0 0 0
3 5 5 2 0 0 4 0 0 0 0 0 0 0 0 5 5 5 1 0 0 0 0 1 0 0 0 0 0 0 0 0 0
0 0 0 0 0 0 0 0 0 0 0 0 0 0 0 0 0 0 0 0 0 0 0 0 0 0 0 0 0 0 0 0 0
0 0 0 0 0 0 0 0 0 0 0 0 0 0 0 0 0 0 0 0 0 0 0 0 0 0 0 0 0 0 0 0 5
0 0 0 0 0 0 0 0 0 0 0 0 0 0 0 0 0 0 5 2 0 3 4 5 5 5 0 0 0 0 0 0 5
0 0 0 0 0 0 0 0 0 0 0 0 0 0 0 0 0 0 0 0 4 5 5 5 5 5 3 0 0 0 0 0 0

GFSFLT1_prec_cloud_006.txt.gz
Cloud_Cover
100 81 100 6 0 0 0 0 0 0 0 0 18 3 4 0 0 0 0 0 0 0 0 2 90 100 87 1 26 96 100 99 65
100 100 97 0 0 0 0 0 6 2 0 1 3 14 15 0 0 0 5 0 0 1 4 0 68 78 36 90 100 98 100 100 100
100 88 5 4 0 1 0 8 1 2 2 3 2 0 0 0 0 2 5 3 0 14 18 10 18 5 97 99 74 97 100 100 100
100 99 99 93 6 1 0 2 1 0 0 0 0 0 0 0 5 0 10 0 1 61 100 100 65 9 11 98 100 100 100 100 100
100 100 96 51 3 0 0 0 0 0 0 2 0 0 0 0 1 4 11 0 14 23 5 8 26 100 55 76 5 12 100 100 100
100 49 13 5 2 0 0 0 0 0 1 0 0 0 4 0 2 11 1 0 0 3 43 7 7 8 17 17 71 18 100 100 100
56 5 67 5 5 5 0 0 0 0 5 0 2 0 0 1 5 5 5 5 4 5 0 5 100 67 38 5 5 8 26 100 100
77 11 5 2 1 96 26 0 0 0 0 0 0 2 0 2 5 5 5 10 50 69 56 33 9 100 84 9 5 33 100 100 100
23 32 30 5 100 8 0 0 0 0 0 2 2 2 1 4 5 0 55 87 10 57 88 89 100 50 57 82 30 28 89 98 100
13 100 100 94 40 4 1 1 0 0 0 3 5 5 5 5 5 0 0 0 3 7 30 8 75 69 99 98 71 100 100 100 82
98 100 94 64 39 3 4 3 0 5 0 1 5 5 5 6 5 5 5 0 0 0 0 0 0 4 5 9 23 82 71 57 100
100 70 89 34 5 5 8 5 5 5 2 0 0 1 0 0 0 0 0 0 0 0 0 0 0 0 0 0 0 1 5 5 5
100 82 44 34 5 42 6 0 0 0 3 0 0 0 0 0 0 0 0 0 0 0 0 0 0 0 0 0 0 0 0 0 0
90 14 40 13 6 8 0 5 4 0 0 0 0 0 0 0 0 0 0 0 0 0 2 4 17 5 5 5 5 5 22 5 5
52 25 11 6 28 3 5 3 0 0 0 0 0 0 0 0 0 0 0 0 5 3 1 1 0 0 0 0 0 0 5 4 0
5 58 64 5 4 5 0 0 0 0 0 0 0 0 0 0 0 0 0 0 0 0 0 0 0 0 0 0 0 0 0 0 0
61 13 5 2 5 0 0 0 0 0 0 0 0 0 0 0 0 0 0 0 0 0 0 0 0 0 0 0 0 0 0 0 1
24 5 5 5 0 0 0 0 0 0 0 0 0 0 2 0 0 0 0 0 0 0 0 0 0 0 0 0 0 0 0 0 2
5 5 5 2 0 0 0 0 0 0 0 0 0 0 0 0 0 0 2 0 1 0 5 2 4 4 2 0 0 0 0 0 3
5 5 5 5 0 0 0 0 0 0 0 0 0 0 0 0 0 2 0 0 2 0 3 4 2 5 0 0 0 0 0 1 5

GFSFLT1_prec_cloud_012.txt.gz
Cloud_Cover
0 0 5 5 0 0 1 0 5 5 5 9 100 100 44 0 4 0 2 1 0 0 0 0 0 1 0 2 0 0 0 13 5
0 4 2 5 3 5 3 5 23 43 100 95 6 6 2 0 7 15 16 27 0 10 94 42 5 5 32 53 6 38 1 5 5
5 1 1 4 4 54 3 89 100 61 99 86 97 8 4 41 59 39 34 14 0 19 87 51 26 14 69 5 4 4 5 34 25
48 77 78 47 95 20 96 100 98 96 43 12 5 5 5 5 14 1 2 0 0 25 100 17 74 70 78 14 0 4 76 17 14
12 5 6 94 100 100 100 100 100 100 7 38 74 5 16 5 2 0 0 0 0 0 7 15 5 6 11 0 1 0 4 7 98
93 84 100 100 48 52 99 82 84 57 69 65 28 77 8 5 1 0 0 0 0 0 0 0 0 0 10 19 18 0 2 3 3
100 100 100 100 100 100 8 5 51 7 32 34 45 6 5 4 4 0 0 0 0 1 0 0 0 0 0 5 14 5 4 9 8
100 100 100 100 100 100 99 100 14 46 42 27 8 5 5 1 5 0 0 0 0 0 3 0 0 0 0 2 1 2 5 5 5
100 100 61 26 56 99 100 98 80 60 25 23 5 5 2 0 5 0 0 0 0 4 5 5 2 3 5 3 0 1 0 0 3
62 8 5 5 98 94 76 61 67 17 35 7 5 5 4 5 4 0 0 0 0 3 0 0 0 0 0 0 0 0 0 0 0
7 40 94 72 26 78 70 58 70 5 14 86 6 7 5 5 2 5 5 0 0 0 0 0 0 0 0 0 0 0 0 0 0
91 100 100 38 8 26 81 84 72 57 71 100 69 40 13 27 5 5 5 0 0 0 0 0 0 0 0 0 0 0 0 0 0
100 100 8 61 100 100 100 100 100 100 100 100 100 81 98 31 5 5 2 0 0 0 0 0 0 0 0 0 0 0 0 0 0
100 92 25 31 100 100 100 100 100 100 100 100 100 100 20 49 5 4 0 0 0 0 0 0 0 0 0 0 0 0 0 0 0
5 5 5 41 72 100 100 100 100 100 100 100 99 29 89 5 0 0 0 0 0 0 0 0 0 0 0 0 0 0 0 0 0
5 5 100 86 5 20 33 62 100 100 45 13 25 5 2 0 0 0 0 0 0 0 0 0 0 0 0 0 0 0 0 0 0
24 10 78 79 66 53 62 99 100 100 56 5 5 5 5 0 0 0 0 0 0 0 0 0 0 0 0 0 0 0 0 0 0
6 78 97 100 82 85 84 46 92 100 80 5 5 16 5 0 0 0 0 0 0 0 0 0 0 0 0 0 0 0 0 0 0
4 97 100 100 46 100 100 7 90 82 13 5 5 5 2 0 0 0 0 0 0 0 0 0 1 0 0 0 0 0 0 0 0
0 2 5 5 55 5 5 60 86 59 5 5 5 4 0 0 0 0 0 0 0 1 5 5 5 0 0 0 0 0 0 5 5

GFSFLT1_prec_cloud_015.txt.gz
Cloud_Cover
5 0 0 0 0 0 0 0 1 0 0 3 0 19 9 63 58 21 23 9 0 0 3 0 0 0 0 0 0 0 0 0 0
22 5 5 4 0 0 0 8 1 6 3 4 62 96 32 62 63 19 25 79 2 1 100 0 2 0 2 0 5 5 5 5 0
81 75 88 51 4 0 4 6 18 70 74 22 63 100 100 100 23 38 37 10 5 4 56 0 3 7 36 34 11 1 60 7 5
49 74 32 8 5 5 60 100 18 7 62 100 100 100 100 85 23 38 9 5 5 2 88 1 14 18 5 3 4 11 0 0 4
100 100 100 100 97 71 99 82 46 100 17 36 93 54 5 5 9 5 25 5 5 0 4 0 0 0 6 2 2 5 4 4 6
100 100 100 100 100 100 99 7 100 100 95 100 73 5 5 5 5 5 5 5 4 0 0 0 1 0 2 3 5 2 7 7 4
100 100 100 100 100 100 100 100 100 100 100 100 100 97 74 80 6 5 13 5 5 4 0 0 0 7 46 8 2 1 2 1 5
100 100 100 100 100 100 100 100 100 100 95 37 72 71 95 84 23 54 60 5 5 31 10 0 21 2 0 5 5 5 5 5 0
100 100 100 100 100 100 100 100 100 34 6 23 6 79 81 14 47 39 8 13 5 5 5 3 0 0 0 0 0 0 4 1 1
66 100 100 100 100 100 95 66 94 39 71 69 37 19 94 63 11 41 100 25 8 5 7 5 4 0 0 0 0 0 0 0 0
68 37 48 5 15 12 47 49 56 60 44 76 51 25 14 20 62 100 100 47 90 5 98 6 5 0 0 0 0 0 0 0 0
7 9 5 5 5 4 3 5 6 6 6 40 10 92 29 99 100 100 100 100 91 6 87 5 5 0 0 0 0 0 0 0 0
1 6 30 5 14 7 5 5 5 44 100 92 98 99 100 100 100 100 100 100 60 78 18 5 0 0 0 0 1 0 0 0 0
12 88 12 5 5 5 5 5 16 78 94 100 100 100 100 100 100 98 100 52 40 67 5 0 0 0 0 0 2 5 0 0 0
97 17 5 4 5 5 20 70 7 5 5 13 60 73 84 53 34 13 8 27 25 5 0 0 0 0 0 0 0 0 0 0 0
100 5 1 3 5 32 99 100 93 34 5 5 5 5 7 5 5 26 10 5 0 0 0 0 0 0 0 0 0 0 0 0 0
100 30 0 0 5 68 93 99 88 70 62 43 5 10 42 59 5 0 0 0 0 0 0 0 0 0 0 0 0 0 0 0 2
100 87 0 0 0 20 29 64 61 28 92 73 12 5 5 11 12 5 5 0 0 0 0 0 0 0 0 0 0 0 0 1 2
100 88 0 0 0 5 21 63 64 5 5 17 4 5 5 5 38 6 0 0 0 0 0 0 0 0 0 0 0 0 0 0 5
100 55 0 0 0 0 0 1 1 4 4 0 3 5 5 4 0 0 0 0 0 0 0 0 0 0 0 0 0 0 0 5 5

GFSFLT1_prec_cloud_018.txt.gz
Cloud_Cover
4 0 0 2 3 5 4 4 5 0 0 0 0 0 0 0 3 97 100 100 100 74 64 5 1 2 0 0 4 5 0 0 0
17 2 2 2 16 13 5 5 5 5 4 18 0 0 3 12 68 100 100 100 95 79 100 4 6 20 12 13 4 8 0 1 0
31 26 8 27 10 29 14 12 18 35 12 3 2 98 17 15 100 95 17 28 6 11 58 8 7 13 9 0 2 20 7 0 9
92 97 87 97 86 100 100 93 63 34 6 16 46 46 62 100 100 99 24 5 5 5 72 5 5 5 1 3 4 0 2 1 2
100 100 100 100 100 100 100 100 100 100 100 83 91 97 100 100 100 100 100 37 96 100 60 5 5 8 10 3 2 7 13 2 5
100 100 100 100 100 97 100 100 100 100 100 100 100 100 100 100 100 100 100 89 58 72 5 9 6 54 25 14 12 10 0 0 2
100 100 100 100 100 100 100 99 100 100 100 100 100 100 100 100 100 100 54 36 26 22 97 29 34 6 32 32 0 0 0 0 4
55 49 99 61 70 100 100 100 100 100 100 100 100 100 100 100 99 7 8 5 65 98 57 20 6 5 26 5 3 4 0 0 0
5 5 8 39 63 87 100 100 100 100 100 100 100 100 100 18 64 13 8 33 5 27 9 90 57 59 15 85 5 5 4 0 0
5 12 27 34 10 30 15 91 69 100 100 100 100 99 38 5 70 41 25 20 30 36 100 100 100 100 100 97 5 5 2 0 0
5 6 3 3 66 29 31 15 4 13 97 90 14 67 9 5 15 6 5 78 24 100 100 100 100 100 100 97 11 5 2 0 0
6 5 5 5 0 0 1 2 5 5 5 5 0 3 5 46 56 98 98 99 100 100 100 100 100 100 100 42 5 6 4 0 0
0 5 5 5 1 2 1 0 0 0 5 5 5 5 5 25 62 86 100 100 100 100 100 100 100 97 42 22 11 6 0 0 0
0 2 5 5 5 5 5 0 0 5 5 54 92 7 7 5 5 6 77 66 100 70 22 31 8 56 58 73 15 0 0 0 0
0 4 17 3 4 5 5 0 0 5 5 38 97 99 90 55 5 54 90 100 30 5 5 5 5 16 2 0 0 0 0 0 0
0 39 39 0 0 0 0 0 0 5 51 66 40 95 81 78 44 5 5 27 19 5 5 1 0 0 0 0 0 0 0 0 0
6 77 61 5 1 0 0 0 0 4 5 5 6 62 38 5 8 5 5 5 3 5 5 3 0 0 0 0 0 0 0 0 0
14 97 98 45 5 4 0 0 0 1 5 5 8 5 5 5 23 18 1 0 4 4 0 0 0 0 0 0 0 0 0 0 2
11 100 98 16 5 5 5 0 0 0 1 4 0 0 0 0 3 3 5 5 5 0 0 0 0 0 0 0 0 0 0 0 5
43 100 100 51 5 5 5 52 5 2 0 0 0 5 2 0 0 4 1 0 0 0 0 0 0 0 0 0 0 0 0 0 5

GFSFLT1_prec_cloud_021.txt.gz
Cloud_Cover
2 5 5 5 5 5 1 0 0 0 5 5 5 4 0 5 45 98 100 5 61 70 100 100 57 43 5 5 5 2 0 0 0
5 5 5 8 23 6 57 64 2 5 5 5 5 5 5 5 9 40 58 61 16 100 87 95 55 5 20 36 40 16 0 8 0
14 11 38 9 27 82 16 12 11 54 40 36 80 61 91 10 31 4 11 5 25 100 89 41 23 14 51 72 5 5 10 31 10
61 98 100 100 100 100 89 88 100 84 100 100 96 96 100 81 47 88 77 9 100 100 100 100 99 90 80 5 13 14 12 5 9
87 90 100 100 100 100 100 100 100 100 100 100 12 43 95 100 92 83 91 100 100 100 100 100 100 100 21 21 5 5 4 1 12
0 33 43 99 95 100 100 100 100 87 100 100 100 92 100 100 74 92 99 100 100 100 99 100 96 37 36 14 10 5 5 3 5
0 0 5 5 70 99 93 100 97 99 100 100 100 100 100 100 99 78 98 100 100 88 100 99 74 67 53 10 5 5 17 19 15
0 18 1 2 5 16 96 75 93 100 100 84 100 98 100 100 100 76 100 100 100 100 99 41 9 24 13 33 5 8 48 68 95
5 11 2 1 0 5 5 5 48 75 60 18 56 46 61 99 100 100 100 100 100 64 19 32 5 45 7 5 41 43 100 100 100
5 5 5 0 0 0 2 5 5 5 5 6 5 5 4 5 5 3 17 62 5 18 15 21 28 79 5 34 98 85 100 100 100
12 5 81 5 1 0 0 1 3 4 0 2 4 4 2 3 4 4 3 4 5 5 47 100 74 99 100 100 100 100 100 100 99
5 5 5 1 3 5 2 0 0 0 0 0 0 0 1 0 5 5 2 3 5 36 91 100 100 100 100 100 100 100 100 100 37
6 5 5 5 0 2 4 0 1 2 0 0 0 4 5 5 33 5 5 5 5 49 100 100 80 75 94 100 100 97 65 17 12
18 5 4 0 0 0 0 0 5 5 0 0 0 5 5 5 54 6 24 51 98 50 9 59 99 76 5 23 25 21 55 24 18
12 3 0 0 0 0 0 0 0 0 0 0 0 1 5 5 5 20 68 85 34 73 92 97 38 87 48 5 5 3 1 2 0
47 0 0 0 0 0 0 0 0 0 0 0 0 0 5 5 40 5 48 38 62 74 99 99 20 10 5 5 5 0 0 0 0
31 0 0 4 1 2 1 2 4 1 0 0 0 0 1 5 5 4 3 0 1 1 45 73 31 5 5 0 0 0 0 0 0
62 0 0 5 39 0 0 2 5 5 4 4 0 0 0 0 3 4 4 1 1 5 24 27 5 5 0 0 0 0 0 0 3
100 20 10 79 99 8 0 4 5 5 5 5 5 5 3 0 0 0 0 5 0 0 0 0 0 0 0 0 0 0 0 0 4
100 40 20 32 100 94 2 5 5 5 56 92 50 18 9 10 5 5 5 3 0 0 0 0 0 0 0 0 0 0 0 0 0

GFSFLT1_prec_cloud_027.txt.gz
Cloud_Cover
0 0 0 0 1 0 0 0 0 0 0 0 0 0 0 0 0 5 4 0 1 2 8 76 95 16 5 5 5 5 5 17 100
0 0 0 0 2 6 5 0 2 4 0 0 1 4 3 1 2 3 5 5 18 5 7 6 16 100 99 91 68 6 91 26 94
0 0 0 0 9 0 6 17 16 9 1 0 0 5 5 5 5 68 5 14 31 46 12 24 5 16 36 86 73 51 40 45 38
1 0 0 0 12 0 0 8 1 0 0 0 0 0 3 2 4 32 44 9 5 7 16 15 8 17 46 71 99 99 100 95 99
0 0 1 0 0 5 0 2 0 0 0 2 3 5 5 24 39 5 42 69 15 100 98 10 44 40 44 100 100 100 100 100 100
0 0 0 0 0 0 0 0 0 0 0 4 0 5 5 0 1 0 17 5 33 52 53 28 100 92 83 100 89 100 81 79 100
0 2 2 0 0 0 0 0 0 0 0 0 0 4 6 5 2 7 14 5 45 73 95 100 79 82 71 80 16 95 44 10 7
15 23 14 6 1 0 0 0 0 0 0 0 0 5 5 5 5 5 5 81 87 100 100 28 8 78 72 5 5 2 0 3 10
31 35 38 24 6 0 5 1 0 0 0 2 5 16 5 5 5 4 5 2 5 5 5 4 4 5 5 0 0 0 1 5 5
29 24 25 66 39 5 2 0 0 0 0 0 0 0 0 3 5 4 5 4 4 10 0 0 0 1 0 0 3 4 5 13 14
20 23 20 26 5 6 5 2 2 0 0 0 0 0 0 0 0 0 0 0 0 0 0 0 0 5 0 3 5 5 12 68 97
4 9 15 5 5 5 5 3 5 0 0 0 0 0 0 0 0 0 0 0 0 3 5 5 5 5 5 80 86 72 70 100 100
2 0 4 67 4 3 5 0 4 0 0 0 0 0 0 0 0 0 0 0 0 5 22 73 71 97 89 90 100 100 95 79 99
0 3 4 2 4 4 4 0 0 0 0 0 0 0 0 0 0 0 0 0 0 2 5 41 6 91 96 91 67 5 8 40 82
5 24 5 5 5 16 3 0 0 0 0 0 0 0 0 0 1 4 0 0 0 0 0 1 4 5 5 5 5 5 5 1 5
100 100 100 100 100 99 1 0 4 0 0 0 0 0 0 0 0 2 5 29 5 5 0 0 0 0 0 0 0 0 0 0 1
95 100 100 99 100 91 5 6 5 5 0 0 0 0 0 0 0 0 3 19 65 100 100 78 24 10 7 5 4 7 5 5 5
100 100 100 96 74 65 25 5 8 4 3 0 0 0 0 0 0 0 0 0 0 8 12 72 100 100 100 98 64 71 93 56 26
94 100 100 100 100 100 54 24 6 5 2 0 0 0 0 0 0 0 0 0 0 0 2 5 5 5 24 93 100 100 100 100 100
47 100 100 100 100 86 100 100 7 5 5 0 0 0 0 0 0 0 4 3 5 5 5 0 0 0 3 11 80 96 100 100 100

GFSFLT1_prec_cloud_030.txt.gz
Cloud_Cover
0 0 0 0 3 0 0 0 0 0 0 0 0 0 0 0 0 0 0 0 7 5 2 1 34 6 5 12 15 42 5 1 2
0 0 0 4 0 0 0 0 2 5 16 6 0 0 0 0 0 0 0 0 9 1 13 0 5 14 9 21 18 19 65 89 14
0 0 0 15 10 0 6 4 3 7 0 0 0 0 0 0 0 0 0 0 1 0 4 4 13 8 100 89 73 89 84 82 76
0 0 0 0 0 0 0 26 1 0 0 0 0 0 0 0 0 3 0 2 4 5 1 6 17 59 64 88 100 100 94 86 81
0 0 0 0 0 4 36 0 0 0 0 0 0 0 0 0 0 0 0 1 2 0 14 54 100 50 3 100 100 100 100 100 100
0 1 0 1 1 0 0 0 0 0 0 0 0 0 0 0 0 0 0 5 45 98 47 92 88 74 20 100 100 100 59 29 93
5 5 5 5 10 0 0 0 0 0 0 0 0 0 0 0 0 0 0 4 60 71 67 63 94 38 4 4 10 40 5 5 4
15 19 16 6 5 5 0 0 0 0 0 0 0 0 0 3 2 0 5 53 98 79 81 29 1 5 2 9 5 0 5 12 4
31 35 26 24 13 22 5 5 0 0 0 0 0 0 0 0 0 0 0 0 2 0 0 0 0 0 5 37 0 0 0 0 1
37 33 30 26 7 5 14 5 5 0 0 0 0 0 0 0 0 0 0 0 0 0 0 0 0 0 0 0 0 1 0 0 4
40 38 34 44 7 1 5 5 5 2 3 3 0 0 0 0 0 0 0 0 0 0 0 0 0 1 5 4 5 5 5 5 5
22 29 32 26 5 5 5 5 5 5 0 0 0 0 0 0 0 0 0 0 0 0 0 0 0 4 5 25 76 100 81 57 5
6 19 19 2 5 4 5 5 5 3 0 0 0 0 0 0 0 0 0 0 0 0 0 0 0 0 5 5 5 17 8 5 5
34 9 6 2 2 5 6 5 0 0 0 0 0 0 0 0 0 0 0 0 0 0 0 0 0 0 0 0 2 2 3 5 5
5 5 1 1 4 1 0 6 5 5 5 4 4 3 2 0 0 0 0 0 0 0 0 4 5 7 27 16 4 3 0 0 0
5 5 5 27 16 18 100 99 8 5 5 5 5 4 4 5 1 0 0 0 0 0 0 0 0 5 5 18 80 96 87 76 57
5 5 12 100 100 100 100 100 5 5 5 5 5 0 3 5 0 0 0 0 0 0 0 0 0 0 0 0 0 1 4 17 73
5 5 48 67 100 71 99 100 48 5 9 5 5 5 5 5 0 0 0 0 0 0 0 0 0 0 0 0 0 0 0 5 5
13 13 88 61 99 98 100 100 98 27 64 14 5 5 41 5 5 4 4 2 0 0 0 0 0 0 0 0 0 0 0 0 4
92 76 84 99 100 100 100 100 100 100 96 65 14 5 64 85 5 5 5 5 5 0 0 0 0 0 0 0 0 0 1 4 5

GFSFLT1_prec_cloud_036.txt.gz
Cloud_Cover
4 15 0 0 0 0 0 0 0 0 4 10 0 0 0 0 0 0 5 99 1 4 0 14 32 48 51 27 23 8 16 2 0
5 5 5 3 1 2 5 5 5 6 4 0 0 0 0 1 0 11 3 27 5 0 0 20 35 82 53 73 94 95 78 73 48
0 0 3 4 4 5 6 6 4 3 0 0 0 0 0 1 3 1 0 0 0 0 0 23 18 46 16 0 12 12 27 71 97
0 0 1 2 1 1 25 8 0 0 0 0 0 0 0 0 0 0 0 0 0 0 30 23 9 87 100 85 42 88 0 48 45
1 0 0 0 4 2 20 5 0 0 0 0 0 0 0 0 0 0 0 0 1 88 98 46 98 40 19 0 73 98 74 5 14
0 0 0 0 0 11 0 0 0 0 0 0 0 0 0 0 0 0 2 48 66 96 63 65 80 4 0 0 3 2 1 5 3
5 0 0 0 0 5 5 5 3 2 0 0 0 0 0 0 0 0 26 3 61 30 6 11 0 0 0 0 0 0 0 0 0
20 5 1 3 21 23 3 5 5 5 5 1 0 0 0 0 0 0 82 38 34 0 0 0 0 0 0 0 0 0 0 0 0
59 74 67 11 3 4 5 1 5 5 5 5 3 0 0 0 0 10 0 0 0 0 0 0 0 0 0 0 0 0 0 0 0
41 100 100 99 13 0 5 2 4 0 2 0 0 5 0 0 0 0 0 0 0 0 0 0 0 0 0 0 0 0 0 0 0
14 74 100 100 37 0 0 5 5 5 4 0 5 0 0 0 0 0 0 0 0 0 0 0 0 0 0 0 0 0 0 0 0
6 41 100 100 73 10 2 0 1 5 5 4 5 3 0 0 0 0 0 0 0 0 0 0 0 0 0 0 0 0 0 0 0
5 14 97 78 63 7 5 5 5 5 5 5 5 5 2 0 0 3 0 0 0 0 0 0 0 0 0 0 0 0 0 0 0
5 10 39 99 72 5 6 5 6 58 43 5 5 5 5 5 3 1 0 0 0 0 0 0 0 0 0 0 0 0 0 0 0
18 65 36 31 51 6 31 70 52 29 72 55 6 5 7 5 5 5 5 5 4 0 0 0 0 0 0 0 0 0 0 0 0
100 41 5 5 27 21 47 97 97 98 100 100 27 25 95 100 100 29 15 5 5 5 5 4 4 0 0 0 0 0 3 5 1
47 98 83 48 76 57 86 95 72 98 90 100 100 96 89 100 100 100 98 56 66 78 69 84 8 4 5 2 0 5 5 5 5
100 96 99 80 66 90 98 100 99 56 84 100 100 100 100 100 100 100 100 100 100 100 100 100 78 17 4 4 2 5 5 5 6
96 98 100 100 100 100 100 100 88 56 100 100 100 100 100 100 100 100 100 100 100 100 100 100 100 89 11 5 5 5 5 5 5
100 100 100 100 100 100 100 100 100 100 100 100 100 100 100 100 100 100 100 100 100 100 100 100 100 100 5 5 5 5 5 5 5

GFSFLT1_prec_cloud_039.txt.gz
Cloud_Cover
0 0 0 0 0 0 0 0 0 0 7 0 0 0 2 5 20 36 8 60 9 0 0 22 7 72 85 60 27 11 22 0 0
0 0 0 0 0 0 0 0 0 3 0 0 5 5 5 13 20 29 53 1 4 0 7 29 82 96 99 98 73 78 100 67 21
0 0 0 0 0 0 2 13 0 0 4 2 5 5 5 30 20 4 2 0 0 0 2 15 30 99 68 18 4 14 56 70 92
0 1 0 0 4 8 20 0 0 0 0 1 3 0 1 0 0 3 0 0 0 2 18 15 0 23 54 20 19 13 11 32 100
0 0 0 0 0 2 1 0 0 0 0 0 0 1 4 0 3 5 1 0 2 48 24 23 73 15 8 6 13 98 0 3 53
0 0 1 2 1 17 0 0 1 4 0 4 4 0 0 0 0 0 0 27 72 73 76 70 60 12 2 0 1 2 0 0 0
42 27 5 3 4 9 13 5 3 3 5 0 0 0 0 0 0 0 0 22 59 15 12 0 0 0 0 0 0 0 0 0 0
72 25 35 25 47 26 15 4 2 2 5 3 0 0 0 0 0 0 0 18 5 0 0 0 0 0 0 0 0 0 0 0 0
53 23 7 5 5 19 0 0 0 0 2 5 3 0 0 0 0 0 10 8 0 0 0 0 0 0 0 0 0 0 0 0 0
76 59 61 20 21 4 1 0 3 5 4 4 2 0 0 0 1 1 27 0 0 0 0 0 0 0 0 0 0 0 0 0 0
24 59 100 100 10 24 5 2 0 5 4 5 5 3 3 4 0 0 0 0 0 0 0 0 0 0 0 0 0 0 0 0 0
21 62 70 100 100 25 7 5 3 0 1 4 5 5 5 5 5 5 5 2 2 2 0 0 0 0 0 0 0 0 0 0 0
5 13 5 87 100 86 38 5 5 5 5 29 24 5 47 42 5 5 5 5 5 4 0 0 0 0 0 0 0 0 0 0 0
5 5 5 9 77 100 23 5 5 58 42 30 53 23 49 11 65 68 20 57 51 73 94 5 3 3 0 5 3 0 0 0 0
24 27 5 65 29 91 41 5 5 13 7 25 74 65 97 100 91 66 96 100 100 100 79 89 5 4 5 7 5 5 5 0 0
40 31 12 11 81 100 98 78 53 90 39 40 25 85 100 100 68 98 98 100 100 100 100 87 100 77 81 58 100 24 5 5 5
67 100 98 100 100 92 89 50 80 91 66 15 32 9 34 90 22 47 100 100 100 100 100 100 100 100 100 86 100 100 97 5 5
97 84 68 78 93 73 35 73 58 18 44 56 43 76 80 100 99 88 100 100 100 100 100 100 100 100 100 100 100 100 75 28 5
80 100 100 100 99 100 100 100 100 100 100 99 100 100 100 100 100 100 100 100 100 100 100 100 100 100 100 100 91 100 87 92 62
54 100 100 100 100 100 100 100 100 100 100 100 100 100 100 100 100 100 100 100 100 100 100 100 100 100 100 99 100 100 100 100 100

GFSFLT1_prec_cloud_042.txt.gz
Cloud_Cover
2 25 14 0 0 0 0 0 0 0 0 0 0 0 0 0 100 99 4 0 0 0 25 89 82 100 60 97 53 62 89 6 0
10 2 0 0 0 0 0 0 0 0 0 0 0 0 0 0 99 2 4 0 0 0 6 12 88 97 60 100 100 99 99 96 78
0 0 1 0 0 0 3 1 0 0 0 0 0 0 1 51 0 0 0 0 0 7 5 15 22 32 89 4 13 80 100 93 82
5 5 0 0 0 5 4 0 0 0 0 0 0 1 0 0 4 0 0 0 0 10 20 19 13 0 27 16 9 26 100 29 100
5 0 2 4 0 3 0 5 3 5 5 0 5 5 0 1 0 0 0 0 12 81 47 18 2 0 0 15 2 6 1 9 17
4 1 4 4 0 5 5 29 5 5 5 5 2 4 0 0 0 0 0 11 93 89 74 10 29 2 0 0 0 0 0 0 0
2 3 5 5 5 5 5 5 5 8 6 5 4 0 0 0 0 0 0 33 35 16 2 0 0 0 0 0 0 0 0 0 0
4 5 5 7 6 5 5 41 6 1 5 4 3 0 0 0 2 0 3 13 20 0 0 0 0 0 0 0 0 0 0 0 0
5 5 5 7 6 5 5 15 10 5 0 0 0 0 0 0 0 0 0 6 0 0 0 0 0 0 0 0 0 0 0 0 0
62 39 70 42 58 42 9 8 5 1 0 0 0 0 4 1 2 2 5 5 4 5 2 5 2 4 0 0 0 0 0 0 0
36 20 46 13 5 5 5 0 2 0 0 0 0 0 0 1 5 5 5 5 5 5 5 5 5 3 0 0 0 0 0 0 0
45 7 36 5 67 5 20 5 5 5 5 5 4 5 5 5 5 5 5 5 5 5 5 5 5 5 5 5 0 0 0 0 3
5 8 4 1 5 16 24 18 5 5 17 74 82 58 11 86 43 50 85 6 5 25 100 100 73 99 16 5 5 4 0 1 5
5 5 6 2 5 7 90 100 7 50 56 100 91 83 45 5 67 79 96 91 99 93 83 93 71 100 88 67 5 3 5 5 5
2 0 0 0 0 5 7 96 80 100 99 72 100 100 99 94 100 51 12 6 6 26 5 42 100 100 100 100 99 99 87 6 5
5 3 5 2 0 5 5 27 67 58 52 81 100 97 98 100 100 100 77 10 6 71 92 70 100 100 100 100 100 100 100 98 58
8 2 5 5 5 28 75 91 99 85 18 5 11 30 72 93 26 56 62 100 100 100 100 100 100 100 100 100 100 100 100 98 97
0 38 22 17 5 17 21 40 96 96 97 94 62 74 100 100 100 100 100 100 100 100 100 100 100 100 100 100 100 100 100 100 100
3 0 30 99 79 95 84 50 100 100 100 80 99 100 99 100 100 100 100 100 100 100 100 100 100 100 100 100 100 100 100 99 100
34 6 8 100 100 98 6 7 25 12 16 65 63 90 100 100 100 100 100 100 100 100 100 100 100 100 100 100 100 100 100 100 100

GFSFLT1_prec_cloud_045.txt.gz
Cloud_Cover
93 74 30 16 13 0 0 0 0 0 0 0 0 0 0 1 0 0 0 0 0 26 70 98 86 100 44 98 27 100 40 0 7
20 26 0 1 1 1 0 0 0 0 0 0 0 0 0 0 0 0 1 2 3 3 21 14 70 58 100 94 32 86 99 72 97
0 2 4 5 5 3 0 0 0 0 0 0 0 0 0 3 4 4 5 4 0 17 13 0 0 1 28 21 44 100 84 98 56
5 2 3 2 1 3 0 0 0 0 0 0 4 4 5 5 5 0 5 0 5 26 99 95 16 8 2 13 15 100 100 100 100
5 5 4 5 5 10 5 0 2 2 5 5 0 5 5 5 5 5 0 0 100 75 43 35 1 2 0 6 4 53 90 17 94
5 5 5 2 0 0 0 1 5 5 5 5 5 1 4 5 5 2 0 4 92 100 34 23 0 0 0 0 0 5 0 1 0
3 5 5 5 2 0 1 5 4 5 5 5 5 5 5 0 3 0 0 0 18 35 5 0 0 1 0 0 5 5 5 0 0
5 10 5 6 5 1 5 5 5 5 5 6 5 0 0 0 0 0 0 3 90 4 5 5 5 5 0 5 5 5 5 5 3
5 5 9 22 20 6 5 5 5 5 7 5 0 0 0 0 1 5 1 0 2 0 5 5 3 5 5 5 5 5 5 2 0
5 5 6 5 16 21 5 34 73 12 1 0 0 0 0 2 5 5 5 17 84 37 3 6 49 5 5 5 5 5 1 2 3
78 93 96 95 53 82 84 39 8 5 5 5 4 5 5 5 10 17 75 57 100 100 15 12 14 55 60 100 99 61 5 1 0
100 100 100 100 57 16 8 5 5 5 62 69 85 24 5 5 28 100 100 32 91 98 99 66 99 100 100 81 17 5 5 5 0
100 100 100 89 62 8 3 2 3 5 70 73 46 46 5 7 99 100 100 100 100 100 100 79 83 84 26 5 33 70 5 5 5
100 95 38 5 0 2 7 2 5 10 56 21 5 5 8 12 27 99 100 100 81 13 8 70 96 98 7 24 27 96 99 73 80
8 5 5 72 21 5 0 1 5 5 35 10 5 5 4 5 5 5 87 75 94 48 18 76 55 41 96 99 100 100 87 100 100
95 100 99 13 5 5 5 5 5 8 57 100 35 5 10 57 100 37 5 94 100 100 100 100 100 100 100 100 100 100 100 100 100
56 73 93 6 0 1 0 2 6 24 62 74 53 35 72 100 100 100 100 100 100 100 100 100 100 100 100 100 100 100 100 100 100
5 5 3 17 46 26 4 5 65 100 100 100 89 64 27 53 100 100 79 29 11 53 100 100 100 100 100 100 100 100 100 100 100
0 0 3 5 0 7 34 60 78 70 97 44 81 52 12 5 5 44 80 65 96 100 100 94 99 100 100 100 100 100 100 100 100
0 0 0 12 5 5 5 15 100 50 18 80 100 100 57 63 51 50 94 100 99 99 100 99 83 98 100 100 100 100 100 100 100

GFSFLT1_prec_cloud_048.txt.gz
Cloud_Cover
54 68 100 34 0 0 0 5 5 5 5 4 0 0 0 0 0 0 0 0 22 36 70 24 76 74 99 98 80 4 19 11 12
100 25 8 2 0 1 2 4 3 4 1 0 0 0 0 0 0 0 0 3 7 81 95 24 47 22 100 78 69 95 91 86 90
97 18 1 0 0 0 2 0 0 0 0 0 0 0 0 0 0 0 5 5 0 6 33 0 0 14 99 97 94 100 71 100 74
5 8 5 5 5 5 5 4 5 3 0 0 0 0 0 0 0 5 5 5 2 15 100 95 6 0 13 18 6 70 100 100 100
4 4 0 0 4 0 0 5 5 5 1 0 0 0 0 1 5 5 3 0 48 43 85 99 21 12 0 4 9 98 100 100 100
5 5 5 5 8 5 5 5 4 0 0 0 0 4 5 5 5 0 0 16 61 29 77 67 0 2 5 5 5 5 5 8 6
5 5 5 5 21 5 5 3 3 2 4 4 5 5 11 3 0 1 0 71 26 40 0 22 1 5 5 29 96 12 16 5 5
5 5 5 12 5 5 5 5 3 5 5 9 5 29 5 5 8 4 2 8 8 6 5 5 5 5 32 97 5 7 8 5 5
5 21 17 20 30 12 5 5 8 13 48 27 5 5 5 5 7 0 0 0 7 14 5 35 25 15 5 42 25 5 9 6 100
5 12 19 22 32 24 33 56 72 100 8 5 5 34 6 5 15 8 3 1 1 38 73 100 66 7 10 78 82 39 90 100 59
5 10 22 50 81 100 100 93 100 26 32 59 33 78 75 6 8 6 5 4 5 17 100 100 100 71 39 100 67 97 100 62 46
99 83 100 100 100 100 100 100 68 5 92 73 100 90 80 75 13 39 5 5 8 74 71 60 56 99 100 100 71 100 89 62 53
100 100 100 100 100 100 100 71 47 7 5 8 74 42 24 15 8 5 5 5 5 5 5 5 87 100 84 100 100 99 100 74 92
100 100 100 100 100 100 75 12 5 5 5 3 4 3 4 5 5 35 55 89 59 7 5 5 5 65 44 39 40 28 82 100 100
100 100 100 100 100 100 52 14 5 6 5 3 11 25 7 6 74 86 99 85 100 100 100 100 93 98 100 98 100 100 100 100 100
100 100 100 100 70 33 5 5 5 5 5 82 100 99 12 100 100 94 100 100 100 100 100 100 100 100 99 100 100 100 100 100 100
100 100 100 87 13 19 25 5 5 5 2 24 77 100 26 51 5 5 5 22 8 11 12 19 7 51 74 100 100 100 100 100 100
100 100 100 100 45 5 5 2 5 0 1 5 57 12 19 45 53 54 54 16 55 100 100 100 100 100 100 100 100 100 100 100 100
20 8 11 7 5 5 4 4 0 21 27 10 75 97 65 50 70 89 93 86 78 100 100 100 100 100 100 100 100 100 100 100 100
67 36 5 27 31 5 2 2 18 15 34 85 100 100 68 99 58 76 45 48 78 72 88 100 100 100 100 100 100 100 100 100 100

GFSFLT1_prec_cloud_051.txt.gz
Cloud_Cover
82 42 50 0 0 0 0 0 0 0 0 0 0 0 0 0 0 0 0 0 22 17 21 32 94 91 100 71 54 19 16 16 7
97 97 85 0 0 0 0 0 0 0 0 0 0 1 0 0 0 0 0 12 66 96 72 32 40 31 100 59 90 88 73 90 76
100 28 17 0 0 0 4 2 0 0 0 0 0 0 0 0 0 0 0 1 13 7 28 2 0 1 46 100 92 99 100 93 97
100 53 29 15 4 4 6 2 0 0 0 0 0 0 0 0 0 0 1 5 7 26 97 100 19 7 24 30 9 26 100 100 100
36 5 5 16 6 5 2 2 0 0 0 2 0 0 0 0 0 0 5 6 62 49 46 100 20 11 0 6 6 26 100 100 100
5 14 14 5 5 5 5 5 5 3 2 1 2 0 5 5 5 1 1 3 97 49 90 87 11 4 0 5 5 34 69 47 79
5 5 32 93 34 43 5 5 5 5 0 1 5 6 16 8 5 0 3 45 100 85 5 1 5 3 4 5 70 8 8 14 12
5 24 51 20 6 5 4 5 5 5 5 5 5 17 5 5 3 1 5 12 42 4 5 5 5 5 27 26 96 46 99 8 100
11 18 12 26 30 27 5 4 5 5 5 5 24 41 7 5 12 5 5 5 16 92 14 0 5 5 66 100 100 86 5 8 95
5 7 16 25 25 32 20 14 64 36 32 48 41 100 100 84 62 70 7 5 5 4 2 5 7 5 31 100 100 6 28 92 83
6 8 12 22 32 27 33 83 100 99 98 50 48 54 31 56 94 13 80 5 5 5 5 5 18 26 5 12 80 97 68 60 55
6 8 17 91 100 100 79 89 100 89 88 5 7 5 24 5 51 40 10 32 5 5 5 6 20 54 6 15 20 91 94 92 48
21 97 97 81 86 83 99 100 100 95 5 5 5 5 5 54 7 17 68 5 4 5 5 5 12 46 14 5 5 8 36 93 100
100 100 100 100 100 100 100 100 94 10 5 5 5 8 5 5 4 1 2 2 6 88 93 25 5 19 30 73 100 100 100 100 100
100 100 100 99 97 100 100 100 62 24 5 5 5 50 79 42 5 5 5 5 77 100 100 98 100 100 93 30 82 100 100 100 100
37 89 100 100 100 100 100 77 39 9 5 13 5 5 5 22 1 3 5 38 45 56 72 100 100 100 100 90 100 100 100 100 100
100 100 100 100 100 100 76 25 5 12 23 30 43 64 11 5 7 5 6 10 27 98 100 100 100 100 93 100 100 100 100 100 100
100 100 100 100 100 100 100 82 46 24 76 8 86 100 70 24 62 35 26 43 86 100 69 81 95 100 100 100 100 100 100 100 100
100 100 100 100 100 100 99 78 60 69 62 45 32 88 100 100 87 19 96 99 45 5 10 15 20 46 56 100 100 100 100 100 100
5 18 38 41 45 47 82 96 92 30 46 98 100 98 100 100 99 100 34 10 32 30 40 18 61 100 100 100 100 100 100 100 100

GFSFLT1_prec_cloud_054.txt.gz
Cloud_Cover
98 92 0 0 0 0 0 0 0 0 0 0 0 0 0 0 0 0 0 41 57 22 79 21 96 100 31 15 47 12 10 19 0
36 95 0 0 0 0 0 0 0 0 0 0 0 0 0 0 0 0 0 27 87 100 100 33 11 34 100 21 92 99 59 8 38
100 86 8 0 0 0 0 0 0 0 0 0 0 3 0 0 0 0 0 0 2 12 7 7 5 5 10 100 89 98 94 53 82
100 88 10 17 0 2 4 5 3 4 0 5 5 1 0 0 0 0 0 0 3 37 86 10 12 14 2 0 2 27 52 100 66
1 42 0 6 0 0 5 5 5 5 5 5 3 0 0 0 0 0 0 8 92 80 5 77 7 2 0 0 0 0 100 100 100
0 0 0 0 0 0 0 2 5 5 5 5 0 0 4 3 0 0 5 5 90 98 17 5 4 4 0 2 0 9 86 94 91
0 0 1 0 0 0 0 0 5 5 5 5 3 5 5 5 5 5 5 5 91 100 5 5 4 0 0 0 0 18 20 15 62
5 7 11 3 4 4 2 5 5 5 5 5 5 5 55 27 36 5 11 5 65 17 5 5 0 0 0 0 5 8 20 16 61
16 19 11 19 18 25 5 5 5 5 5 5 5 10 28 5 5 35 5 5 35 7 97 5 0 0 0 1 5 58 100 93 99
2 9 11 21 27 41 32 11 5 5 5 5 34 29 8 5 5 6 5 22 5 5 20 5 5 6 0 0 5 47 74 99 28
5 5 6 8 23 24 32 58 15 6 5 5 7 16 5 5 5 6 5 6 15 5 5 5 15 84 27 11 16 12 12 28 11
5 5 8 6 11 29 47 28 19 23 82 52 93 58 5 5 26 5 6 5 5 5 5 15 19 71 100 89 25 7 28 18 32
5 5 5 15 37 84 35 24 47 83 53 72 64 6 5 17 5 12 7 11 7 5 5 5 3 4 5 100 46 60 100 100 100
4 5 6 17 83 45 37 100 86 92 82 71 6 5 6 6 24 5 5 5 8 11 5 5 5 5 5 28 40 93 81 89 100
8 54 86 96 100 86 58 81 80 100 71 32 20 31 20 56 71 38 18 8 5 5 5 5 32 12 69 35 37 87 100 83 84
13 80 100 58 100 100 100 100 100 100 15 79 73 5 6 41 72 54 10 5 5 5 5 16 16 11 59 57 100 100 100 100 80
5 37 81 91 93 100 100 100 28 29 72 64 100 100 98 100 95 35 19 9 6 40 14 48 20 13 94 70 18 100 100 99 100
60 58 58 61 97 100 100 86 100 100 100 92 88 100 100 100 100 79 53 25 18 32 84 59 78 47 19 71 100 100 100 100 100
100 100 100 100 100 100 100 100 100 100 100 100 100 100 100 100 96 100 100 94 84 100 72 70 100 98 100 100 100 100 100 100 100
100 100 100 100 100 100 100 100 100 100 100 100 100 100 98 100 100 100 100 92 100 99 100 58 98 61 100 43 98 100 100 100 100

GFSFLT1_prec_cloud_057.txt.gz
Cloud_Cover
6 34 5 5 5 0 0 0 0 0 0 0 0 0 0 0 0 5 3 50 12 79 31 19 27 44 68 74 20 4 0 0 0
99 30 5 5 0 0 0 0 0 0 0 0 0 0 0 1 0 0 10 11 26 43 67 58 5 5 14 9 32 96 13 3 2
100 13 5 5 0 3 0 0 0 0 0 0 0 0 0 5 5 0 0 0 1 5 11 16 7 3 2 2 11 31 65 0 18
100 91 8 5 0 0 0 0 0 0 0 0 0 1 0 0 0 0 0 0 16 5 1 5 5 3 2 5 1 0 0 12 44
97 88 5 5 0 0 0 0 0 0 0 0 0 0 0 0 0 0 0 2 95 9 5 5 5 5 5 5 4 0 0 100 100
6 5 5 0 0 0 0 0 0 0 0 0 0 1 0 0 1 2 0 5 62 91 5 5 5 5 5 5 4 0 2 83 100
5 5 5 0 0 0 0 0 0 5 5 5 5 3 4 5 5 8 5 5 20 63 5 4 5 5 5 5 5 0 12 3 93
5 0 0 0 1 25 0 1 5 5 5 5 5 5 5 5 5 5 12 5 60 51 5 5 5 5 5 5 4 0 0 1 3
0 0 0 0 0 8 9 4 5 5 5 5 7 5 9 5 5 8 5 7 33 59 5 5 5 5 5 5 5 0 0 0 18
0 0 4 4 1 3 4 5 5 5 5 5 12 41 12 13 5 21 6 83 5 5 5 23 5 5 5 6 5 2 0 0 0
5 0 4 5 5 5 5 5 5 5 5 36 60 20 61 69 48 22 23 5 5 5 5 6 28 49 100 49 32 18 15 5 9
5 5 5 5 5 5 4 5 5 5 5 5 64 76 98 76 84 16 5 12 6 5 5 30 7 76 31 100 100 58 67 12 44
5 5 5 5 5 5 5 5 30 9 6 11 92 94 63 100 84 5 8 28 5 9 51 5 5 5 5 59 100 100 99 84 80
5 5 5 5 13 8 11 6 5 6 25 92 100 50 97 97 15 20 18 10 17 80 5 5 5 5 2 4 78 100 100 15 18
7 5 5 20 40 52 62 23 40 81 30 73 100 100 49 48 81 65 66 78 96 6 5 5 5 5 7 5 64 40 100 100 90
34 96 75 59 92 21 5 13 5 37 84 93 92 100 99 100 13 98 100 100 20 6 5 5 5 5 5 5 5 5 5 24 50
100 100 100 100 51 30 58 73 41 96 100 67 83 99 99 37 100 100 100 90 62 14 5 5 5 5 5 5 5 9 100 100 100
100 100 100 100 99 100 97 82 100 100 100 98 72 93 90 100 100 100 100 97 77 31 10 8 5 5 40 88 94 100 100 100 100
100 92 85 100 100 100 100 100 100 100 100 100 100 100 100 100 100 96 100 100 86 91 95 64 82 89 100 100 100 100 100 100 100
63 60 100 100 100 100 100 100 100 100 100 100 100 100 100 84 100 100 100 99 100 36 100 6 42 92 100 76 100 100 100 100 100

GFSFLT1_prec_cloud_060.txt.gz
Cloud_Cover
5 5 5 5 5 4 5 5 0 0 0 0 0 0 0 0 0 0 18 99 12 8 6 5 5 10 84 55 16 3 0 0 0
37 5 5 5 5 5 5 5 0 0 0 0 0 0 4 0 0 0 0 12 0 5 5 21 8 5 5 5 19 29 14 18 18
93 56 11 31 22 5 5 5 0 0 0 0 0 0 5 4 5 0 0 0 6 5 2 5 5 4 5 5 0 0 15 15 43
98 64 13 46 10 32 5 5 0 0 0 0 0 3 5 5 5 3 1 4 20 4 5 5 5 5 5 5 2 0 0 0 2
32 80 21 5 32 8 5 3 0 0 0 0 2 5 5 5 5 5 2 3 79 3 5 5 5 20 5 5 2 2 5 0 7
6 28 33 41 5 5 5 0 0 0 0 0 1 2 5 5 5 3 3 5 8 67 5 5 5 5 5 5 5 5 4 12 12
22 6 5 5 5 5 5 0 0 0 0 0 0 5 5 5 5 0 5 5 6 100 7 5 5 5 5 5 5 5 1 0 64
11 35 16 5 8 4 2 0 0 0 0 0 0 0 5 4 3 5 5 5 5 94 93 15 27 5 5 5 11 4 0 0 0
38 12 5 5 0 0 0 0 0 0 0 0 0 0 0 2 5 5 5 5 5 25 24 36 5 5 38 39 5 2 0 0 0
1 4 2 2 1 0 0 1 0 4 5 3 3 5 4 5 5 5 5 5 5 54 78 30 9 43 100 21 8 4 0 0 2
0 2 5 5 5 5 5 5 5 5 4 5 5 5 5 5 5 32 5 26 8 9 5 16 55 92 100 100 96 23 10 5 16
0 4 5 5 8 11 12 6 5 5 5 5 5 5 5 7 75 100 98 98 98 10 11 90 100 79 78 100 100 100 100 98 7
6 5 5 9 16 8 8 11 15 7 13 11 24 22 50 91 100 100 100 100 60 98 42 99 93 20 5 13 67 100 98 98 6
7 17 7 36 36 38 18 26 22 31 52 49 16 23 30 55 100 93 100 94 100 72 74 16 5 5 5 22 96 28 40 96 58
52 28 22 38 54 26 36 26 64 65 46 54 46 46 49 60 20 41 99 100 97 51 5 5 5 5 5 5 2 18 96 37 48
100 35 58 64 71 60 57 100 74 52 67 84 100 100 92 96 73 100 100 86 69 5 5 5 5 5 5 3 4 5 4 80 77
100 84 61 74 75 51 65 99 95 100 92 100 100 100 100 100 100 100 98 37 5 14 5 5 5 5 5 5 5 1 7 5 57
100 100 100 99 100 100 100 100 100 100 100 100 100 100 100 100 100 100 100 98 60 64 52 15 31 70 34 19 84 100 100 100 64
100 100 100 100 100 100 100 100 100 100 100 100 100 100 100 100 100 100 100 100 100 100 88 100 76 97 98 98 100 100 100 100 100
100 100 100 100 100 100 100 100 100 100 100 100 100 100 100 100 100 100 100 100 100 100 100 100 12 99 5 3 13 75 100 100 100

GFSFLT1_prec_cloud_063.txt.gz
Cloud_Cover
0 3 5 5 6 5 5 11 5 5 5 5 0 0 0 0 16 28 33 71 13 5 5 5 5 5 6 10 25 18 21 7 9
0 5 5 8 5 5 5 5 5 5 5 5 0 0 0 0 0 0 3 10 5 5 5 5 5 6 5 5 2 25 15 19 15
5 5 5 50 12 5 8 5 5 5 5 3 0 0 0 0 0 0 0 1 5 5 5 5 5 5 5 5 5 5 5 5 38
5 5 5 5 5 14 6 5 5 5 5 5 0 0 0 0 0 0 0 0 5 5 5 5 13 5 5 5 5 5 5 5 6
5 5 26 6 5 5 5 5 5 5 5 2 0 0 0 0 0 0 0 0 5 2 5 5 10 5 5 5 5 2 5 5 5
6 7 6 11 5 5 26 5 5 5 5 5 0 0 0 0 0 0 0 5 5 27 5 5 6 5 5 5 2 4 5 5 5
6 5 5 8 5 5 5 5 6 5 5 5 4 0 0 0 0 0 4 5 5 20 99 7 5 5 5 5 5 5 5 5 5
0 5 5 5 5 6 8 56 11 5 0 0 0 0 0 0 0 0 3 4 5 29 8 5 5 5 5 5 9 14 5 54 5
0 0 2 4 5 14 41 6 5 0 0 0 5 5 0 0 0 5 5 5 5 11 32 68 77 32 9 27 56 5 53 8 1
0 0 0 0 2 5 4 1 2 1 4 5 5 5 0 2 5 5 5 5 8 60 100 100 100 100 100 83 6 12 12 2 3
5 4 0 0 0 0 0 0 16 16 14 5 5 5 5 3 5 5 5 8 5 85 100 100 56 100 96 96 100 94 77 15 5
6 5 5 5 4 0 0 5 5 6 6 8 41 32 16 5 10 5 5 5 5 5 5 11 96 55 18 66 52 36 90 96 29
22 63 61 26 29 24 19 24 28 31 23 20 21 22 14 13 26 5 62 72 8 5 28 98 37 45 50 86 10 28 7 4 2
99 74 59 88 48 35 33 33 22 16 63 100 74 46 24 70 100 88 31 67 70 96 54 54 99 100 57 5 5 7 34 23 0
100 94 36 100 100 100 100 100 100 100 100 100 97 72 75 100 96 98 95 100 100 96 83 99 98 62 5 5 5 5 1 22 89
94 100 100 100 100 100 100 100 100 100 67 96 70 100 100 100 100 100 100 100 96 100 100 100 61 5 5 5 5 5 1 7 41
100 99 100 100 100 100 100 100 100 100 100 100 100 100 100 100 100 100 100 98 86 90 59 38 5 5 20 25 5 5 5 6 5
100 100 100 100 100 100 100 100 100 100 100 100 100 99 100 100 100 100 100 92 55 24 5 5 46 72 38 100 95 62 93 98 68
60 96 100 100 100 100 100 100 100 100 100 100 100 100 100 100 100 100 100 100 93 7 5 8 99 100 100 52 100 41 36 76 100
100 100 100 100 100 100 100 100 100 100 100 100 100 100 100 100 100 100 100 100 100 96 5 33 37 60 6 5 6 87 66 6 5

GFSFLT1_prec_cloud_066.txt.gz
Cloud_Cover
0 0 0 0 1 5 2 5 5 5 5 5 5 5 5 5 0 0 0 0 0 0 1 0 0 0 5 25 14 22 20 19 12
0 0 0 0 1 5 9 17 13 8 5 5 5 5 5 5 0 0 0 0 0 0 0 0 4 5 5 5 21 74 96 100 93
0 0 2 0 5 6 68 72 52 10 7 6 22 5 5 5 0 0 0 0 0 0 0 0 5 5 5 5 5 0 5 24 98
0 0 0 0 31 24 5 7 5 5 27 40 5 5 5 0 0 0 0 0 0 0 0 5 5 5 5 5 2 5 5 5 5
0 0 0 0 5 5 5 5 5 5 11 5 5 5 5 5 0 0 0 0 0 0 4 2 5 11 14 5 5 5 5 5 5
0 0 0 0 0 5 5 5 5 6 36 5 5 5 5 0 0 0 0 0 0 8 8 21 7 15 5 5 85 41 37 12 38
0 0 0 0 0 1 5 51 33 26 28 5 5 5 4 0 0 0 0 0 0 1 14 84 5 5 10 100 100 100 13 14 5
0 1 0 0 4 0 1 5 5 8 16 5 5 0 0 0 0 0 0 0 0 0 3 5 5 5 33 48 12 5 5 5 5
3 2 0 0 0 0 0 0 0 0 0 0 0 0 0 0 0 0 3 4 5 2 6 6 5 5 5 5 5 5 5 5 5
25 5 5 2 0 0 0 0 0 0 0 0 0 0 0 0 1 5 5 5 5 5 5 10 28 5 5 5 5 5 5 5 18
27 22 5 5 5 5 4 5 5 5 5 5 0 0 0 0 0 0 0 1 5 5 37 5 12 12 26 5 49 14 5 27 5
96 55 9 24 5 5 5 5 5 5 5 5 5 5 5 5 5 5 5 5 64 79 6 25 38 98 23 6 6 5 5 5 2
84 36 43 99 52 36 51 76 81 71 29 30 60 70 55 72 19 55 28 81 52 72 84 93 45 57 6 26 24 43 32 1 4
97 76 90 92 100 100 99 100 100 100 100 100 100 100 100 100 99 99 100 70 100 100 100 96 65 14 56 21 50 39 17 99 36
100 72 52 96 100 100 100 100 100 100 100 100 100 100 100 100 100 100 98 85 73 17 66 85 50 54 49 83 30 6 5 5 60
100 98 100 100 100 100 100 100 100 100 100 100 100 100 100 100 100 100 100 58 64 56 5 48 100 100 80 18 12 24 10 16 26
100 100 100 100 100 100 100 100 100 100 100 100 100 100 100 100 100 100 100 100 100 100 96 100 100 99 92 95 33 45 27 17 58
100 100 100 100 100 100 100 100 100 100 100 100 100 100 100 100 100 100 100 100 100 100 100 100 99 40 100 100 100 100 100 98 97
100 88 100 100 98 98 100 100 100 100 100 100 100 99 74 100 100 100 100 100 100 100 100 100 52 41 20 13 8 91 100 98 43
100 100 100 100 100 100 100 100 100 100 100 100 100 100 100 100 100 100 100 100 100 100 100 92 90 84 26 5 5 100 100 15 25

GFSFLT1_prec_cloud_069.txt.gz
Cloud_Cover
0 0 0 28 78 0 0 5 5 5 5 5 5 5 5 5 5 5 5 2 0 0 0 0 0 0 0 23 32 100 96 65 30
0 0 0 3 0 0 0 5 5 7 35 41 8 5 5 5 5 5 5 0 0 0 0 0 0 0 0 5 12 50 100 100 66
0 0 0 2 2 0 0 5 5 29 5 5 7 5 5 5 5 5 5 5 0 0 0 0 0 0 0 1 0 0 6 34 95
0 0 0 0 0 0 0 4 5 5 5 5 5 5 5 5 5 3 1 0 0 0 0 0 0 0 0 0 2 2 5 5 21
0 0 0 0 0 0 0 0 5 5 5 5 5 5 5 5 1 0 0 0 0 0 0 0 0 0 0 0 3 0 5 0 1
0 0 0 0 0 0 0 0 5 4 5 4 3 4 5 5 5 4 0 0 0 2 0 0 0 0 0 0 0 5 4 0 1
0 0 1 0 0 0 0 0 0 0 0 0 0 0 0 0 0 0 0 0 0 0 0 0 0 0 0 4 4 4 0 0 0
1 14 4 4 0 0 0 0 0 0 3 0 0 1 0 2 0 0 0 0 0 0 5 0 0 5 5 5 2 0 0 0 0
5 12 5 4 5 5 5 2 0 5 1 0 5 5 5 5 4 1 1 3 0 0 0 4 3 5 5 5 5 5 5 4 5
13 8 5 5 5 5 5 3 2 1 5 5 5 5 5 5 7 5 5 5 20 14 5 9 34 14 5 5 5 5 5 5 5
57 13 17 10 5 5 5 5 5 5 5 49 33 45 39 46 95 97 100 100 64 12 14 53 11 73 82 15 5 5 5 19 5
100 99 100 51 9 6 5 5 6 16 57 69 66 89 15 24 36 100 96 65 100 100 58 5 5 46 6 22 52 16 13 5 12
100 100 100 100 100 32 7 42 98 60 22 19 6 23 67 100 100 98 100 100 99 34 100 100 18 29 78 27 67 89 94 99 28
100 100 100 100 100 88 30 56 65 100 99 100 100 100 100 100 100 100 100 81 58 100 100 100 100 100 100 100 100 100 51 14 100
100 100 100 100 91 100 100 100 100 100 100 100 100 90 93 100 100 100 100 85 46 93 64 96 100 100 100 100 91 96 5 5 4
100 100 100 100 100 100 100 100 100 100 100 100 100 91 84 100 100 100 100 98 100 59 70 74 100 100 100 100 90 93 29 16 5
100 100 100 100 100 100 100 100 100 100 100 99 94 98 100 100 100 100 100 100 99 100 91 100 100 100 95 100 100 100 90 26 6
100 100 100 100 100 100 100 100 100 100 99 98 100 100 100 100 100 100 100 100 100 100 100 100 99 100 100 100 93 7 5 34 26
100 100 100 100 100 100 100 100 100 91 94 100 100 100 100 100 100 100 100 100 100 100 100 100 92 100 97 100 77 65 26 5 5
100 100 100 100 100 100 100 100 99 99 91 100 100 100 100 100 86 98 100 100 100 100 100 87 100 100 100 100 100 85 16 3 5

GFSFLT1_prec_cloud_072.txt.gz
Cloud_Cover
61 34 0 0 0 0 0 0 0 0 5 5 5 16 5 5 5 5 5 5 5 0 0 0 0 0 5 96 95 100 100 89 100
2 6 1 44 0 0 0 0 0 0 1 5 5 5 5 5 5 5 5 4 0 0 0 0 0 0 0 0 7 7 100 100 100
0 2 53 2 3 4 0 0 0 0 0 5 5 5 5 5 5 5 5 0 0 0 0 0 0 0 0 0 0 1 13 10 50
0 0 0 0 1 0 0 0 0 0 0 1 5 5 5 1 0 0 0 0 0 0 0 0 0 0 0 0 0 0 5 8 18
0 0 0 0 0 0 0 0 0 0 0 0 0 2 4 1 0 0 0 0 0 0 2 0 0 0 0 0 0 4 0 0 0
0 0 0 0 0 0 0 0 0 0 0 0 3 2 4 5 5 5 5 5 5 5 5 1 3 5 2 0 4 2 0 2 9
0 1 0 0 0 0 5 5 1 2 0 3 4 3 4 5 5 5 5 5 5 5 30 7 5 5 5 3 4 1 0 0 0
11 18 9 5 5 2 5 5 5 5 5 5 5 5 5 5 5 5 5 5 5 10 34 9 5 5 5 3 0 4 5 0 0
20 28 16 15 16 33 45 11 12 22 36 20 5 5 5 5 5 6 15 24 5 96 76 16 6 6 5 5 5 5 5 0 1
91 37 7 6 6 10 22 56 64 6 6 5 12 11 44 42 5 8 5 5 86 74 98 78 36 47 8 5 5 5 5 5 31
100 97 62 24 5 15 82 69 14 38 47 57 73 43 62 45 40 15 11 49 27 100 100 98 6 59 82 94 35 18 62 99 29
63 79 92 93 96 100 100 100 100 31 5 13 23 35 53 50 23 39 95 44 100 100 100 99 92 100 100 22 100 100 99 22 5
100 95 100 100 100 100 100 100 100 100 92 57 98 98 92 100 98 100 100 100 100 100 100 100 100 6 5 6 29 34 28 91 100
100 100 100 100 100 100 100 100 100 100 100 100 100 100 100 100 100 100 100 100 98 99 100 100 100 87 94 79 18 71 94 17 51
100 100 100 100 100 100 100 100 100 100 100 100 100 100 100 100 100 66 91 100 100 100 100 100 100 100 31 76 100 100 100 82 14
100 100 100 100 100 100 100 100 100 100 100 100 100 99 100 100 78 80 94 91 100 100 100 100 100 100 100 100 100 100 100 97 50
100 100 100 100 100 100 100 100 100 100 100 100 99 100 83 70 46 95 87 9 16 56 100 100 100 100 100 100 100 100 100 100 100
100 100 100 100 100 100 100 100 100 100 100 100 100 98 99 100 100 100 100 100 85 93 74 100 100 100 100 100 100 100 100 100 100
100 100 100 100 100 100 100 100 100 100 100 100 100 100 97 100 100 100 100 100 100 100 100 100 100 100 100 100 100 100 100 100 100
100 100 100 100 100 100 100 100 100 100 100 100 100 100 92 100 100 100 100 100 100 100 100 100 100 100 100 100 100 100 100 100 44

GFSFLT1_prec_cloud_075.txt.gz
Cloud_Cover
74 48 0 6 4 0 0 0 0 0 0 0 0 0 1 5 5 5 5 0 0 0 0 0 0 0 0 0 8 76 86 100 42
47 3 0 6 0 0 0 0 0 0 0 0 0 0 3 5 4 5 2 0 0 0 0 0 0 1 0 0 2 5 5 53 100
99 10 7 8 3 0 0 0 0 0 0 0 0 0 0 0 0 0 0 0 10 3 4 5 2 1 0 0 0 0 2 7 34
33 100 26 17 3 0 0 0 0 0 0 0 0 0 0 0 0 3 3 4 5 5 5 0 0 2 0 5 3 4 5 0 4
5 5 0 5 0 0 0 0 0 0 0 0 0 0 0 0 0 5 5 5 5 4 4 4 0 4 0 0 4 5 0 0 0
5 5 4 3 0 0 0 0 0 0 0 0 5 5 5 5 5 5 5 2 4 5 5 0 1 2 5 5 5 5 5 4 6
5 5 5 5 3 2 0 0 0 0 0 5 5 5 13 70 21 17 10 5 5 5 6 3 33 18 5 5 5 5 5 5 5
8 10 61 29 5 5 5 5 5 5 5 8 5 5 47 42 47 6 5 5 5 5 5 5 100 5 74 7 5 5 5 5 4
48 29 17 16 9 5 5 5 5 45 64 17 67 61 64 56 61 91 59 5 5 7 6 38 100 100 99 5 5 5 5 5 68
55 45 74 23 15 35 5 8 28 10 60 98 88 97 86 33 15 39 41 5 92 39 52 100 100 100 17 5 5 5 5 5 5
89 100 98 100 90 51 18 56 51 72 100 100 100 100 100 100 88 23 98 100 100 100 100 100 100 76 77 31 100 83 17 8 6
100 100 81 100 74 75 30 84 99 100 100 100 100 100 100 100 100 100 100 100 100 100 100 65 100 100 9 9 97 93 56 99 75
100 100 100 98 84 55 73 81 100 100 100 100 100 100 100 100 100 100 98 100 100 100 100 99 100 67 5 5 98 100 17 89 81
100 100 99 100 82 99 100 100 100 100 100 100 100 100 99 100 87 59 93 50 64 88 78 89 64 97 92 22 98 99 100 100 100
100 100 100 100 100 100 100 100 100 100 100 100 100 100 100 80 98 100 100 100 81 55 86 71 100 100 100 100 100 100 100 100 100
100 100 100 100 100 100 100 100 100 100 100 100 100 100 100 100 100 100 100 69 74 100 100 100 100 100 100 100 100 100 100 100 100
100 100 100 100 100 100 100 100 100 100 100 100 100 100 100 91 97 85 97 100 95 93 100 77 92 100 100 100 88 100 100 100 100
100 100 100 100 100 100 100 100 100 100 100 94 92 100 100 100 100 100 100 98 51 97 90 93 100 100 100 100 100 100 100 100 100
100 100 100 100 100 100 100 100 100 98 32 41 8 20 67 100 100 100 100 100 100 100 100 100 100 100 100 100 100 100 100 100 100
100 100 100 100 100 100 100 100 86 83 97 99 100 92 95 100 100 100 100 100 100 100 100 100 100 100 100 100 100 100 100 100 100

GFSFLT1_prec_cloud_078.txt.gz
Cloud_Cover
41 32 2 5 17 23 5 0 0 0 0 0 0 0 0 0 0 0 0 0 0 0 0 0 0 0 0 0 2 0 7 34 40
100 9 8 5 2 21 0 0 0 0 0 0 0 0 0 0 0 0 0 0 0 0 0 0 0 0 0 0 0 0 3 0 51
40 5 4 0 0 0 0 0 0 0 0 0 0 0 0 0 0 0 0 2 12 0 0 0 0 0 0 0 1 0 4 5 7
5 5 4 5 5 0 0 0 0 0 0 0 0 0 0 0 0 2 2 1 9 4 1 0 0 0 0 0 5 1 5 5 0
5 5 5 20 3 3 5 1 0 0 0 0 0 0 0 2 5 5 5 11 5 4 5 5 1 5 5 3 5 4 12 5 5
5 5 5 5 5 5 5 5 3 0 0 0 2 0 1 5 5 5 5 5 5 5 5 1 6 7 3 26 66 5 9 5 5
5 5 10 5 5 5 9 5 4 0 5 4 0 5 5 5 5 8 5 24 5 5 5 5 96 98 99 64 58 49 5 5 5
52 22 18 5 5 5 5 5 5 5 5 4 5 24 23 98 100 98 100 88 58 5 5 100 100 100 100 48 5 5 5 65 5
24 47 13 10 13 5 6 18 9 7 6 5 5 61 87 74 60 100 100 100 60 7 78 100 100 94 93 8 77 28 24 16 5
100 88 26 21 42 10 77 100 97 75 42 46 44 70 93 51 80 74 100 100 100 100 100 100 90 97 100 54 31 16 5 100 5
100 100 88 84 20 5 5 21 30 100 99 92 99 94 100 100 100 100 100 79 48 100 100 100 82 19 31 43 56 93 100 88 65
100 100 99 83 58 98 98 100 99 100 84 81 78 99 100 100 100 100 9 24 100 100 100 100 100 100 78 30 82 70 94 36 98
100 100 100 94 100 90 100 100 100 93 91 100 100 100 100 100 100 100 100 98 51 99 100 100 100 97 80 81 81 8 10 5 5
100 95 90 98 97 99 100 100 100 100 100 100 100 100 100 100 100 100 98 52 98 84 92 94 58 70 71 11 13 5 15 10 52
95 100 100 100 99 100 100 100 100 100 100 100 100 100 100 100 100 94 100 100 97 100 100 45 80 69 8 41 98 91 100 100 100
100 100 100 100 100 100 100 100 93 99 100 100 100 100 43 25 100 98 97 100 87 26 98 65 35 92 30 100 100 100 100 100 88
100 100 100 100 100 100 100 100 100 100 100 100 91 98 97 96 86 34 69 59 28 6 37 68 53 98 65 95 100 100 100 100 69
100 100 100 100 100 100 100 100 100 100 100 100 88 58 71 90 92 59 10 66 6 88 82 99 100 92 91 100 100 100 100 100 100
97 100 100 100 100 100 100 100 100 100 84 73 88 100 100 100 100 100 98 86 62 82 53 98 100 100 100 100 100 100 100 100 99
100 100 100 100 100 100 100 100 100 100 100 49 67 9 5 70 100 82 99 80 90 100 100 100 100 100 100 100 100 100 100 30 94

GFSFLT1_prec_cloud_081.txt.gz
Cloud_Cover
78 2 5 5 100 89 1 0 14 0 0 2 0 0 0 0 0 0 0 0 0 0 0 0 0 0 0 0 0 5 4 0 5
100 4 4 14 47 2 0 0 0 0 0 0 0 0 0 0 0 0 0 0 0 0 0 0 0 0 0 3 5 2 5 5 5
99 6 5 19 58 9 4 1 0 0 0 0 0 0 0 0 0 0 2 1 4 1 0 0 0 0 2 7 44 5 5 5 9
20 9 10 13 36 10 3 2 1 4 0 0 0 0 0 0 0 5 5 5 3 2 4 4 5 0 5 30 5 5 9 5 5
13 77 22 8 5 5 3 2 0 2 0 0 0 0 0 0 0 0 3 5 5 4 5 2 9 2 6 100 100 100 5 5 16
8 15 19 5 5 4 5 5 0 0 0 4 0 0 1 3 5 5 89 51 65 98 100 98 7 5 49 81 100 6 5 19 68
28 8 5 5 5 5 5 5 4 5 2 0 0 4 5 5 5 26 8 5 5 6 73 100 21 21 98 99 6 5 5 8 92
100 22 14 21 17 5 5 5 0 5 5 5 5 5 5 5 5 10 100 25 7 70 100 56 8 43 93 80 5 5 5 9 6
100 89 85 100 10 68 91 5 10 5 7 55 84 92 27 21 35 85 16 92 100 100 90 5 76 90 89 95 11 5 5 5 5
100 100 100 100 100 94 63 74 28 5 7 5 17 6 41 50 71 14 73 19 100 69 15 77 98 82 68 98 99 87 10 6 5
100 98 100 100 100 100 100 100 34 63 25 84 94 100 100 35 86 88 26 73 100 100 98 100 94 86 92 100 92 95 88 10 36
5 66 80 100 100 94 80 96 98 63 93 100 100 100 100 66 73 95 91 100 100 100 89 54 60 62 99 52 63 92 46 60 5
83 65 48 89 100 100 98 56 6 93 100 100 73 100 100 100 43 15 5 6 93 100 50 82 82 69 97 29 19 72 5 5 5
100 91 57 57 100 100 100 96 76 100 100 100 100 100 100 97 68 6 5 6 91 79 87 88 97 100 74 26 5 5 5 14 13
96 72 90 100 100 96 45 69 100 99 100 100 100 68 12 5 5 5 14 73 35 42 24 31 26 4 77 47 67 77 7 78 100
100 66 74 100 100 100 100 99 100 94 98 100 72 52 6 5 5 31 31 100 83 90 17 6 2 0 5 25 95 46 100 98 48
100 100 93 100 99 100 100 99 81 100 100 71 98 46 4 1 5 5 53 98 71 5 18 4 1 0 0 96 71 100 99 65 100
100 100 100 100 100 100 97 82 100 100 100 100 97 7 7 14 20 54 62 12 5 5 0 0 4 7 80 100 100 100 100 100 100
100 100 100 100 100 100 100 100 100 100 93 32 7 6 90 67 100 93 20 66 79 5 4 38 99 87 90 100 100 98 31 100 100
100 100 100 100 100 100 100 100 100 100 100 100 27 23 30 89 100 92 100 45 14 99 92 70 96 98 100 58 26 12 58 100 99

GFSFLT1_prec_cloud_084.txt.gz
Cloud_Cover
100 5 30 97 99 62 5 3 0 0 0 0 0 0 0 0 0 0 0 0 0 0 0 0 0 0 0 5 5 10 96 14 5
20 6 71 100 36 15 12 7 2 0 0 0 0 0 3 0 0 0 0 0 7 0 0 0 0 2 5 5 5 97 82 37 5
100 74 36 99 67 9 5 5 8 8 0 0 0 0 0 5 1 0 0 0 4 1 5 4 3 5 12 6 70 57 53 66 5
100 100 98 100 97 8 5 5 4 2 1 0 0 0 5 5 0 0 0 0 35 100 53 100 100 98 91 85 90 64 98 12 5
100 100 99 100 17 5 5 5 5 5 4 2 0 0 0 0 0 0 5 5 51 28 5 5 5 100 100 100 91 5 25 5 5
17 5 64 25 7 6 11 5 5 5 5 4 5 5 5 5 5 5 5 5 9 85 5 5 68 97 100 100 92 15 5 5 5
63 77 81 40 83 21 5 5 5 5 4 4 0 1 5 5 5 5 5 5 15 5 5 89 100 97 100 97 30 7 5 85 74
100 100 100 100 100 42 5 5 5 5 5 2 5 10 5 28 7 49 5 5 5 5 34 100 40 91 65 41 15 5 7 16 13
99 100 34 74 100 23 14 10 8 48 21 5 5 5 71 95 30 5 16 56 5 33 24 99 100 90 51 15 18 9 5 7 20
100 14 99 100 99 100 100 100 84 37 10 35 14 5 5 12 79 100 100 81 54 73 100 94 100 78 90 96 79 5 5 5 1
100 96 91 100 78 99 73 53 91 100 100 99 5 5 5 54 100 100 6 5 64 94 99 92 26 43 50 98 7 72 5 21 0
89 99 100 75 77 100 100 100 100 100 100 100 78 12 98 86 14 97 60 99 30 94 80 28 6 5 5 49 96 20 5 4 2
100 100 94 81 69 97 99 100 100 100 100 100 48 50 6 8 96 27 6 5 5 32 74 87 66 46 13 98 68 59 8 79 34
100 100 89 100 80 5 47 100 100 100 63 98 100 100 42 100 34 7 5 3 5 7 63 15 36 12 65 89 39 10 0 6 42
100 100 99 100 73 90 46 90 100 91 98 97 99 96 98 4 9 43 79 5 64 25 42 5 6 5 5 5 1 3 0 73 28
100 100 99 100 100 90 64 100 70 6 8 5 95 91 71 5 4 79 5 5 90 99 5 5 5 5 5 5 1 1 4 5 8
100 100 100 100 100 100 100 96 96 56 51 20 44 74 6 27 6 1 0 6 29 5 5 4 21 4 7 20 11 57 88 100 87
100 100 100 100 100 100 100 66 82 69 68 97 18 76 8 4 4 2 0 3 5 5 5 5 5 5 2 0 59 100 100 98 8
100 100 100 100 100 100 100 100 100 95 100 100 96 27 9 5 5 19 8 5 5 10 70 27 5 5 5 5 6 90 95 100 58
100 100 100 100 100 100 100 100 100 100 100 100 100 100 87 100 100 100 100 100 58 65 19 5 5 12 8 5 5 12 100 38 100

GFSFLT1_prec_cloud_087.txt.gz
Cloud_Cover
100 87 100 100 100 92 0 5 5 2 1 0 0 0 0 0 0 0 0 0 0 0 0 0 4 5 5 5 100 99 57 5 5
8 62 100 100 46 5 4 20 10 5 4 1 0 0 0 0 0 5 5 0 0 0 1 6 4 6 15 100 100 99 61 26 5
6 95 100 100 14 12 23 5 4 0 0 5 0 0 0 0 0 5 0 0 0 0 5 88 5 5 12 100 86 93 65 5 14
100 96 98 84 100 92 10 11 17 4 0 0 0 0 0 0 0 0 0 0 0 0 4 5 8 5 61 94 100 44 39 14 34
100 100 100 100 46 5 5 3 5 1 3 0 0 0 0 0 0 0 0 0 5 5 3 5 5 33 100 100 99 17 60 5 5
79 31 100 100 31 5 5 5 1 4 4 4 0 0 0 0 4 3 0 4 0 1 4 5 12 61 100 31 5 10 5 5 5
55 10 80 88 94 99 100 100 100 6 1 0 1 0 1 0 0 2 12 7 5 5 5 5 94 98 72 84 39 67 20 19 86
58 62 60 100 100 100 100 100 96 52 5 1 5 5 5 0 5 3 76 100 42 5 98 100 100 100 100 74 14 18 5 44 100
100 98 100 100 100 93 97 32 97 100 20 55 100 99 7 5 5 5 5 64 5 73 95 82 34 79 6 21 10 5 46 76 7
100 100 100 100 100 52 40 94 100 100 100 100 100 88 98 100 5 5 98 100 9 5 5 20 65 19 56 22 5 4 5 5 4
100 100 100 100 100 100 82 100 100 100 97 100 100 99 74 10 33 47 100 67 6 5 5 97 99 97 6 5 31 70 4 5 3
100 100 100 100 100 100 100 100 100 86 88 55 96 10 23 45 36 74 54 24 33 6 5 51 27 5 5 6 5 5 3 5 5
100 100 100 100 100 100 100 100 99 92 24 34 77 22 80 100 98 88 65 96 86 5 5 5 5 4 5 5 5 4 0 5 56
100 100 100 100 100 100 100 48 61 81 15 66 100 90 84 100 100 100 82 83 54 5 5 5 4 0 1 5 5 41 5 5 4
100 100 100 100 100 100 89 70 78 52 74 39 74 100 100 100 100 100 98 14 12 47 26 5 5 2 4 3 4 1 5 0 3
100 100 100 100 100 100 99 65 99 100 93 100 100 68 20 16 25 37 5 3 5 5 5 58 5 80 7 3 2 3 5 5 0
100 100 100 100 100 100 100 100 96 98 100 100 100 100 50 64 12 5 5 0 0 5 8 6 5 5 10 12 5 5 5 37 5
100 100 100 100 100 100 100 100 100 100 100 100 94 78 79 88 5 22 5 4 0 4 5 2 5 5 5 5 5 5 48 12 100
100 100 100 100 100 100 100 100 100 100 100 100 100 73 100 87 60 7 5 5 4 8 52 8 63 42 5 6 41 5 26 5 98
100 100 100 100 100 100 100 100 100 100 100 100 100 100 100 100 100 26 29 87 57 58 18 63 7 5 10 90 50 98 5 37 100

GFSFLT1_prec_cloud_090.txt.gz
Cloud_Cover
100 6 5 93 94 100 17 8 5 5 1 0 0 0 0 0 0 0 0 0 0 0 0 0 0 5 5 6 63 8 50 5 5
96 10 94 100 100 91 7 5 5 3 0 0 0 0 0 0 0 0 0 0 0 0 0 0 0 5 5 58 46 92 73 16 57
73 8 97 100 38 32 7 21 5 4 5 0 0 0 0 0 0 0 0 0 0 0 0 2 3 5 5 92 55 65 5 5 32
94 100 100 100 51 100 23 86 100 86 1 0 0 0 0 0 0 0 0 0 0 2 5 5 3 5 5 71 16 51 25 5 5
100 100 100 100 44 5 5 6 9 1 0 5 4 5 5 0 0 0 0 0 0 4 3 0 2 10 8 7 7 18 5 5 5
100 100 100 99 48 38 5 5 37 26 100 92 86 4 2 0 0 0 0 1 2 5 5 5 5 68 100 64 76 84 79 19 5
100 100 100 98 33 57 47 18 100 100 100 100 75 58 1 2 2 3 0 5 4 5 5 35 82 100 100 90 99 92 47 5 15
60 35 100 100 99 73 56 23 100 92 100 100 100 100 7 3 5 5 5 5 5 5 82 96 100 38 100 96 86 77 5 5 5
100 89 77 90 100 100 95 97 100 74 97 71 82 100 99 100 100 100 16 27 5 56 62 39 5 32 100 88 83 5 19 1 4
100 100 100 100 100 100 100 100 100 100 87 48 93 96 98 78 100 100 52 17 5 5 5 7 5 37 94 92 7 5 5 5 5
100 100 100 100 100 100 100 100 100 100 94 86 100 95 96 92 100 72 38 37 5 84 72 5 48 100 70 92 5 7 5 6 5
100 100 100 100 100 100 100 100 100 100 100 100 100 90 90 83 92 89 100 90 76 100 63 18 45 48 22 5 10 12 5 5 5
100 100 100 100 100 100 100 100 100 100 100 100 100 100 74 52 99 100 99 100 100 100 100 94 62 18 6 5 5 5 6 5 4
100 100 100 100 100 100 100 100 100 100 100 100 100 88 100 91 100 100 100 100 100 100 100 100 28 11 15 5 5 5 19 5 5
100 100 100 100 100 100 100 100 100 100 100 100 100 100 70 83 55 100 98 100 52 100 100 100 83 5 6 13 5 5 11 5 4
100 100 100 100 100 100 100 100 100 100 100 100 95 97 91 100 98 54 43 100 91 100 100 5 5 5 0 5 5 5 5 78 5
100 100 100 100 100 100 100 100 100 100 100 100 99 100 100 85 100 100 100 100 92 34 45 3 4 0 0 0 3 0 9 17 7
100 100 100 100 100 100 92 100 100 100 100 100 100 100 100 100 100 100 86 25 25 6 5 4 4 2 1 5 5 3 4 4 22
100 100 100 100 100 100 96 100 100 100 100 100 100 100 100 100 100 85 100 22 5 5 5 5 12 5 5 5 5 5 5 36 11
100 100 100 100 100 100 100 100 100 100 100 100 100 100 100 100 100 97 100 90 37 62 99 12 18 12 5 5 5 5 5 25 39

GFSFLT1_prec_cloud_093.txt.gz
Cloud_Cover
98 5 5 5 0 0 0 57 6 5 5 5 1 0 0 0 0 0 0 0 0 0 0 0 0 0 5 5 5 5 5 90 88
85 0 5 20 63 1 0 5 5 5 5 5 4 2 0 0 0 0 0 0 0 0 0 0 0 0 0 3 5 5 6 98 79
98 6 19 96 99 1 0 1 2 54 83 6 14 0 0 0 0 0 0 0 0 0 0 0 4 5 5 5 5 8 98 71 6
100 41 100 100 84 5 5 6 3 2 23 79 9 4 0 2 0 0 0 0 0 0 1 0 5 5 5 11 98 100 100 6 5
100 100 96 100 12 6 5 5 5 5 8 35 18 28 100 71 6 5 0 0 0 0 5 5 5 5 6 100 99 100 94 5 10
100 100 100 100 60 40 8 22 5 56 99 99 100 100 100 100 14 5 5 4 4 5 5 5 5 5 99 97 89 13 5 5 71
100 100 93 100 44 8 28 73 6 77 73 100 100 99 100 60 90 39 5 3 3 65 5 5 32 5 27 6 58 16 23 76 5
100 100 100 100 97 62 49 27 99 100 73 52 100 96 100 98 96 97 96 31 100 100 66 5 86 5 6 13 88 9 85 50 86
100 100 100 100 94 40 61 88 100 100 100 100 100 100 100 69 91 99 60 98 100 95 100 21 12 5 35 99 44 18 100 100 8
100 100 100 100 100 98 100 100 100 100 100 100 100 100 100 100 54 83 92 28 75 62 88 98 89 56 21 66 97 89 75 99 5
100 100 89 100 100 100 100 100 100 100 100 100 100 100 100 100 37 75 99 60 100 100 85 55 96 97 89 82 71 90 37 30 93
100 100 100 100 100 100 100 100 100 100 93 100 100 100 100 63 95 9 84 6 6 100 100 48 100 97 100 100 100 100 99 25 5
100 64 100 98 98 100 100 100 100 100 100 100 100 100 100 100 98 70 86 98 57 83 55 99 100 100 100 100 100 99 34 8 5
100 100 100 96 100 100 100 100 100 94 100 100 100 100 100 100 100 100 69 96 56 78 100 100 100 100 100 100 100 51 32 8 5
100 100 100 100 100 100 100 96 100 100 100 100 100 100 100 100 100 69 89 73 96 95 99 100 40 100 100 100 100 20 7 5 5
100 100 100 100 100 100 100 100 100 100 100 100 100 100 100 97 98 82 100 100 100 74 98 33 21 54 100 95 100 48 12 5 30
100 100 100 100 100 100 100 100 100 100 100 100 100 100 100 100 84 100 100 99 100 100 100 92 28 5 5 0 0 5 4 30 78
100 100 100 100 100 100 100 100 100 100 100 100 100 100 100 100 100 100 100 93 100 100 81 5 46 21 21 11 0 3 90 40 20
100 100 100 100 100 100 100 100 100 100 100 100 100 100 100 100 100 100 100 100 98 78 49 55 40 29 65 5 5 5 26 92 78
100 100 100 100 100 100 100 100 100 100 100 100 100 100 100 100 100 100 100 100 100 100 79 89 100 46 5 28 7 5 4 19 36

GFSFLT1_prec_cloud_096.txt.gz
Cloud_Cover
100 0 0 4 4 3 2 88 2 2 5 3 2 3 5 0 0 0 0 0 0 0 0 0 0 0 0 4 0 5 5 41 53
39 5 0 5 5 5 6 5 0 0 3 5 3 1 0 0 0 0 0 0 0 0 0 0 0 4 5 5 4 5 86 68 38
35 7 5 5 5 6 64 6 5 0 5 5 56 68 33 22 1 5 3 5 2 0 0 0 0 4 5 5 5 89 76 76 77
100 62 5 94 100 10 11 71 9 5 2 5 5 7 5 5 5 7 19 5 5 0 4 5 5 5 5 5 92 92 75 19 100
100 100 100 100 99 13 5 5 28 5 5 5 5 5 25 94 100 100 83 5 5 2 5 5 5 5 5 5 11 65 63 61 16
100 100 100 100 100 99 88 5 5 5 52 55 5 5 18 100 86 37 34 24 5 5 5 5 97 47 16 5 44 70 71 94 96
100 100 100 100 100 100 100 14 7 27 57 22 5 8 26 85 100 100 82 5 5 5 5 84 100 52 100 5 38 90 81 21 99
97 100 100 100 100 100 100 100 10 44 6 20 58 76 98 100 100 100 100 68 26 5 5 52 92 75 15 19 68 41 100 84 43
56 100 100 100 100 47 68 100 100 17 10 73 100 100 100 100 100 100 99 77 84 80 27 16 33 88 57 37 97 69 59 64 100
100 93 100 100 100 100 52 79 100 86 43 100 100 100 100 100 100 100 77 59 97 5 5 6 66 98 99 100 87 100 100 100 100
100 100 100 100 100 100 100 99 73 52 95 100 100 100 100 100 100 100 100 98 74 27 62 98 44 34 58 14 79 100 100 100 100
100 100 99 100 100 100 100 100 100 100 100 100 100 100 100 100 55 100 100 94 84 100 6 94 50 17 24 53 99 100 100 100 100
100 100 100 100 100 100 100 100 100 100 100 100 100 100 100 100 100 100 100 99 100 100 100 100 98 88 83 100 100 100 100 100 100
98 100 100 100 100 100 100 100 100 100 100 100 100 100 100 100 100 100 100 100 99 63 100 88 38 61 100 86 65 78 100 100 100
100 100 100 100 100 100 100 100 100 100 100 100 100 100 100 100 100 100 100 91 100 100 100 95 31 72 71 94 5 21 100 95 100
89 100 100 100 100 100 100 100 100 100 100 100 100 100 100 100 100 100 100 100 100 38 99 49 5 5 5 52 89 100 13 6 10
100 100 100 100 100 100 100 100 100 100 100 100 100 100 100 100 100 100 100 100 100 38 62 24 93 30 11 84 90 29 5 31 34
100 100 100 100 100 100 100 100 100 100 100 100 100 100 100 100 100 95 99 100 100 100 100 100 100 100 61 68 9 73 86 84 37
100 100 100 100 100 100 100 100 100 100 100 100 100 100 100 100 100 100 100 100 100 100 100 100 100 100 75 16 98 100 38 100 19
100 100 100 100 100 100 100 100 100 100 100 100 100 100 100 100 100 100 99 100 100 100 73 100 100 100 66 90 100 19 86 16 55

GFSFLT1_prec_cloud_099.txt.gz
Cloud_Cover
0 0 11 0 3 0 0 0 0 0 0 5 0 0 3 0 0 0 0 0 5 5 5 0 0 0 0 5 4 5 5 17 88
45 1 19 0 1 5 5 5 5 1 0 0 0 0 0 8 6 5 2 1 1 1 5 5 5 5 5 5 5 5 78 97 100
100 31 60 0 0 1 6 9 25 5 5 2 5 0 0 1 8 2 0 5 4 5 5 5 5 5 5 9 5 5 67 68 70
0 49 31 55 2 8 26 32 5 28 25 5 3 0 0 4 5 5 10 18 8 5 5 5 5 76 8 11 57 35 5 92 54
0 5 12 100 100 5 5 22 100 49 5 6 11 5 5 5 5 5 47 51 32 12 5 4 5 5 5 67 60 55 31 78 84
28 76 7 99 60 90 49 67 96 89 71 5 5 6 5 5 5 5 86 100 100 53 20 32 5 5 5 72 36 58 69 86 46
12 74 94 100 50 50 99 98 100 100 100 36 23 5 54 31 5 13 89 100 100 72 100 20 15 5 5 71 53 90 52 59 50
48 33 100 100 94 46 59 100 100 100 100 100 39 5 10 19 16 61 100 100 100 100 64 5 20 70 5 10 53 94 100 100 99
100 99 100 100 95 100 99 78 100 98 100 92 100 73 24 33 74 95 90 100 100 100 20 12 22 8 5 45 100 100 100 99 40
96 100 90 33 100 85 100 100 100 96 66 97 100 100 100 71 78 100 100 100 100 100 89 8 35 9 44 28 52 52 5 89 86
86 99 100 87 100 98 98 100 90 89 93 94 38 62 98 100 100 100 100 100 99 81 98 36 15 31 5 38 8 23 18 29 100
99 100 100 99 100 100 69 100 100 100 99 100 100 99 100 100 100 100 100 98 100 100 64 99 89 90 7 94 42 5 8 99 100
18 100 96 100 99 100 100 100 67 100 100 100 100 100 100 100 100 100 100 100 100 100 100 74 100 55 5 100 100 28 77 86 97
5 99 100 100 96 100 100 100 100 100 100 100 100 100 100 100 100 100 100 100 100 97 97 88 92 96 40 100 58 56 47 99 100
52 70 89 100 100 100 100 89 100 100 100 100 100 100 100 100 100 100 100 100 100 100 100 100 84 99 10 100 99 50 54 40 100
100 100 100 100 100 100 100 100 100 100 100 100 100 100 100 100 100 100 100 100 100 100 100 92 100 85 100 100 22 82 63 80 98
91 100 99 99 100 100 100 100 100 100 100 100 100 100 100 100 100 100 100 100 100 100 100 100 96 80 96 7 86 100 100 90 100
96 91 100 100 100 100 100 100 100 100 100 100 100 100 100 100 100 100 100 100 100 100 100 100 100 100 64 43 53 72 100 100 100
100 100 96 100 100 100 100 100 100 100 100 100 100 100 100 100 100 100 100 100 100 100 100 100 100 67 46 92 100 100 100 100 100
100 100 100 100 100 100 100 100 100 100 100 100 100 100 100 100 100 100 100 100 100 100 100 100 98 89 99 100 100 100 100 94 100

GFSFLT1_prec_cloud_102.txt.gz
Cloud_Cover
5 4 0 0 80 0 0 0 0 0 0 0 0 0 0 0 0 0 0 0 0 0 3 5 4 5 5 5 5 5 5 8 17
100 6 0 0 0 0 5 5 3 5 1 0 0 0 0 0 0 0 1 1 0 3 5 5 4 5 5 5 6 5 5 65 84
76 85 5 5 19 15 7 6 5 5 5 5 4 5 0 0 0 0 0 0 2 5 5 5 4 5 4 6 43 14 82 34 44
2 62 96 48 43 77 50 46 5 5 84 100 46 6 5 5 5 0 5 5 5 11 74 5 4 5 5 5 6 16 37 50 32
0 3 50 100 59 9 60 30 50 5 51 100 86 20 6 49 6 5 5 5 5 50 77 27 12 63 36 3 5 7 5 100 100
0 9 0 54 32 5 11 5 5 10 6 23 100 95 22 5 5 5 5 5 5 87 100 100 100 92 37 5 5 5 63 100 100
5 5 16 100 98 51 32 6 5 9 18 57 100 97 94 81 6 29 11 5 19 65 100 100 100 70 47 5 20 28 6 100 100
30 38 40 100 50 20 30 97 5 5 61 16 55 99 100 100 98 51 8 5 54 96 100 100 100 66 5 5 7 93 17 80 100
41 63 51 63 64 100 88 99 23 22 5 46 12 72 100 100 100 100 100 52 95 88 99 100 100 100 67 91 5 5 12 90 100
80 65 67 93 91 40 62 100 50 6 47 50 59 34 84 98 100 100 100 100 100 100 97 51 100 88 53 8 6 5 5 5 7
71 82 84 59 99 61 68 17 83 82 81 90 30 38 35 81 90 93 85 93 100 100 100 100 100 100 41 6 5 17 9 16 11
55 60 62 45 64 73 51 28 46 12 98 89 100 65 68 83 81 100 96 100 100 100 100 89 52 40 100 44 5 19 40 31 46
27 20 35 34 63 65 100 100 87 90 90 95 79 100 100 100 100 100 100 100 100 100 100 96 100 95 97 95 42 46 72 14 68
17 39 23 46 42 100 82 100 100 100 99 77 62 100 100 100 100 100 100 100 100 100 100 99 91 100 100 86 100 36 29 100 74
58 53 36 35 63 55 100 100 100 100 100 100 91 96 100 100 100 100 100 100 100 100 100 100 100 100 100 100 36 92 27 78 100
99 100 89 86 30 41 100 100 100 100 100 100 100 100 100 100 100 100 100 100 100 100 100 100 100 100 100 100 74 100 5 7 100
14 22 37 94 88 99 88 100 100 100 100 86 99 99 100 100 100 100 100 100 100 100 100 100 100 100 100 100 85 98 63 72 69
88 86 99 55 100 100 100 100 100 100 100 100 100 100 100 100 100 100 100 100 100 100 100 100 100 100 99 70 92 74 90 99 43
100 100 100 100 100 100 100 100 100 100 100 100 100 100 100 100 100 100 100 100 100 100 100 100 100 85 92 56 60 50 100 100 92
100 100 100 100 100 100 100 100 100 100 88 99 100 100 100 100 100 100 100 100 100 100 99 100 100 100 100 100 99 100 100 100 100

GFSFLT1_prec_cloud_105.txt.gz
Cloud_Cover
5 5 1 5 88 54 4 0 0 0 0 0 0 0 0 0 0 0 0 0 0 0 0 7 13 5 4 5 4 5 5 61 22
4 3 3 37 71 79 17 18 5 3 0 0 2 0 0 0 1 0 0 0 1 0 8 9 8 5 3 5 5 5 19 6 99
0 0 0 16 99 48 74 19 5 5 10 37 6 11 1 3 5 5 2 5 5 5 5 5 29 86 5 5 5 42 93 30 7
0 0 0 0 5 41 6 6 41 42 37 7 9 51 46 46 7 5 5 5 5 5 5 5 97 99 100 100 89 12 6 68 13
0 0 0 42 6 3 37 86 7 91 92 46 5 5 11 26 49 58 6 5 5 5 5 5 96 100 100 100 73 23 5 18 71
5 0 0 0 4 5 4 49 100 47 6 38 65 15 5 47 48 36 52 12 51 35 5 11 86 100 100 100 49 71 12 14 65
50 8 3 0 0 8 71 26 11 97 6 5 14 12 52 13 37 45 70 97 66 5 36 92 68 99 100 100 100 93 96 5 5
56 50 36 7 4 52 78 32 25 42 83 5 3 2 6 81 74 93 100 100 100 96 6 98 99 100 100 100 100 83 90 84 52
100 94 56 33 12 5 100 17 8 25 100 5 5 5 5 5 37 69 99 100 100 100 98 46 35 85 100 100 100 60 5 79 79
51 75 81 58 42 32 55 38 96 87 5 5 5 5 5 10 5 5 45 80 100 100 100 82 100 74 100 100 100 98 5 82 27
100 82 55 81 88 98 99 59 86 20 79 5 5 12 5 5 60 75 23 23 98 100 100 100 100 100 100 100 100 100 99 57 44
100 81 100 97 30 94 100 100 99 70 100 14 96 52 23 99 80 100 100 68 100 100 100 100 100 100 100 100 100 100 88 100 92
96 58 88 95 56 39 67 73 100 96 99 97 100 90 30 27 100 100 100 100 100 100 100 100 100 100 100 100 100 100 99 57 11
98 57 44 74 73 52 50 60 46 91 100 100 85 100 64 8 55 100 100 100 100 100 100 100 100 100 100 100 100 100 43 91 60
44 89 100 100 100 100 98 89 81 100 91 100 100 89 96 73 28 47 59 94 100 100 100 100 100 100 100 100 100 100 45 9 72
44 29 100 100 100 100 100 100 98 54 100 100 100 100 100 100 100 100 93 98 91 100 100 100 100 100 100 100 100 98 70 5 94
97 65 100 100 100 67 41 10 39 49 67 100 100 100 100 100 100 100 100 100 100 100 100 100 100 100 100 100 100 100 82 96 95
65 67 68 76 49 46 21 46 92 50 57 100 100 100 100 100 100 100 100 100 100 100 100 100 100 100 100 100 100 100 78 93 96
100 100 67 65 68 99 67 73 96 100 100 100 100 100 100 100 100 100 100 100 100 100 100 100 100 100 100 100 97 98 100 100 100
78 100 100 100 100 100 100 99 98 100 100 100 100 100 100 100 100 100 100 100 100 100 100 100 100 100 100 100 100 100 94 100 100

GFSFLT1_prec_cloud_108.txt.gz
Cloud_Cover
0 0 0 1 49 95 5 34 57 5 0 0 1 0 0 0 0 0 0 1 0 0 0 0 4 5 16 5 57 5 7 31 79
0 2 5 5 20 97 11 3 16 55 5 5 5 5 3 1 0 0 0 1 5 5 5 8 7 5 5 53 100 100 90 71 53
0 0 5 5 8 8 17 16 33 67 58 6 5 5 5 11 5 4 3 5 5 7 6 5 5 5 98 100 100 100 100 59 27
5 0 0 3 1 5 5 8 7 94 100 72 14 18 24 10 5 5 5 5 5 5 5 5 5 12 97 100 100 100 100 79 11
4 0 0 0 2 5 5 7 61 5 5 44 84 86 43 28 26 6 7 5 5 5 5 5 5 5 34 100 100 100 41 100 93
5 5 4 0 0 4 5 5 4 5 5 9 32 38 82 97 31 43 44 14 41 10 5 5 5 30 57 16 100 100 100 100 80
84 64 5 5 0 0 1 5 29 24 5 18 42 90 38 39 30 37 85 57 21 10 63 100 100 68 21 91 98 100 100 100 50
100 100 100 100 13 46 17 50 12 71 89 22 86 74 96 55 7 53 95 23 94 100 84 96 100 100 98 5 27 93 100 100 91
100 100 100 100 81 99 94 85 31 15 5 5 10 50 100 100 100 88 19 32 67 75 100 100 100 100 100 79 95 100 100 100 100
100 100 100 75 92 100 94 98 70 70 31 69 35 7 24 88 100 100 100 89 44 11 30 56 22 27 80 72 100 100 100 100 100
92 63 94 88 15 90 76 40 52 69 93 20 6 5 5 5 33 66 100 100 100 90 95 66 47 28 49 86 100 100 100 100 100
100 100 41 100 46 60 100 100 100 98 100 72 67 66 57 5 5 5 5 3 100 100 100 98 98 50 13 59 64 100 100 100 100
91 100 94 59 100 98 95 100 88 100 80 100 100 59 100 17 5 6 5 6 5 23 100 100 100 100 100 100 37 100 100 100 99
99 87 100 100 100 100 100 93 71 100 93 62 88 100 100 93 91 22 5 5 19 8 5 95 100 100 100 100 97 100 100 100 89
100 88 99 80 96 100 98 100 98 95 92 70 100 100 70 98 91 27 56 24 74 74 25 4 81 100 100 100 100 100 100 100 100
100 100 100 100 100 100 100 75 100 100 100 100 68 87 57 100 100 100 99 81 99 14 95 8 4 4 62 100 100 100 100 100 100
100 100 100 100 100 100 100 100 100 100 100 86 48 55 39 92 80 100 100 100 100 100 100 100 100 94 99 100 100 100 100 100 100
100 100 100 100 96 88 100 100 82 93 72 55 70 98 96 5 39 46 62 100 99 96 100 100 100 100 100 100 100 100 100 100 100
100 100 100 100 100 100 100 93 100 85 50 79 39 94 99 44 99 99 100 95 88 28 92 100 100 100 100 100 100 100 100 100 100
82 100 100 100 100 100 100 100 95 99 100 100 100 100 93 100 100 95 99 98 100 100 68 100 89 95 100 100 100 100 100 100 100

GFSFLT1_prec_cloud_111.txt.gz
Cloud_Cover
5 0 3 3 0 6 6 3 0 0 0 7 18 5 1 0 0 0 0 2 0 0 0 0 9 5 5 5 36 75 100 100 100
4 5 14 14 9 5 11 5 0 0 1 1 1 5 5 5 4 2 5 5 5 6 2 5 4 5 6 6 65 100 100 100 100
4 1 10 99 93 5 47 18 5 4 1 2 4 4 5 5 5 5 5 5 5 5 5 5 5 5 5 6 19 100 100 99 32
5 5 5 9 17 5 6 52 100 100 40 5 5 5 90 55 9 5 7 9 5 5 5 5 5 5 5 5 5 56 100 100 100
0 0 0 0 17 18 12 5 63 99 100 62 5 5 5 53 85 76 38 95 100 80 5 6 5 5 5 5 8 31 19 100 100
1 5 4 0 0 4 5 4 5 5 70 100 100 40 6 5 7 6 98 100 100 28 8 84 99 80 6 69 98 8 36 83 100
65 77 76 6 4 0 0 9 5 6 5 66 98 93 99 36 5 18 65 98 100 100 100 98 92 62 89 92 100 100 100 70 76
100 100 100 100 94 63 38 52 29 6 10 3 28 5 1 5 96 87 93 100 85 95 100 100 79 98 90 100 100 100 100 100 85
100 100 100 100 100 100 100 88 38 59 38 3 5 5 5 5 5 39 100 100 100 100 99 81 29 72 60 85 91 99 97 30 100
100 100 100 100 100 100 100 92 100 100 76 77 65 21 5 5 5 3 6 46 89 90 100 100 100 71 61 35 19 39 80 62 75
100 100 100 100 100 85 100 100 100 57 91 56 65 62 10 5 5 5 1 0 0 1 16 62 97 100 100 96 51 21 5 5 41
100 100 100 100 100 100 100 99 83 76 81 68 94 92 91 5 5 11 5 8 19 11 5 7 25 5 14 83 100 100 45 5 6
85 98 100 100 100 100 100 100 100 100 90 98 100 100 100 100 99 58 14 5 5 9 75 5 4 0 5 75 71 100 100 100 98
100 78 100 100 95 100 100 100 100 100 100 100 64 74 95 85 72 97 100 93 10 31 5 5 5 0 1 0 1 4 65 100 100
100 100 100 100 100 100 99 100 100 100 100 100 100 87 82 21 52 94 53 87 85 43 15 5 14 87 78 6 3 6 5 24 100
40 57 100 100 100 100 100 96 99 97 100 100 99 100 58 100 50 64 100 100 96 87 100 46 71 83 67 95 100 100 49 15 18
5 39 51 100 100 100 100 100 98 82 100 100 100 100 38 19 4 25 63 8 81 100 100 84 64 100 100 100 100 100 100 100 100
5 10 5 51 99 100 100 100 100 100 100 100 100 89 57 5 5 6 32 69 100 86 100 97 100 100 100 100 100 100 96 79 100
100 98 36 80 84 100 100 100 100 100 100 100 78 5 41 32 15 31 20 47 84 14 100 91 57 100 93 100 100 100 100 100 100
100 100 100 32 100 100 100 100 100 100 100 100 100 100 38 71 98 100 99 85 87 100 100 100 100 89 92 100 100 100 100 100 100

GFSFLT1_prec_cloud_114.txt.gz
Cloud_Cover
25 7 0 3 5 5 5 5 2 0 0 40 56 0 0 0 0 5 4 3 1 5 5 5 5 5 5 5 5 5 76 100 100
86 84 76 21 5 5 23 81 27 40 6 5 3 3 0 0 1 5 5 5 5 5 5 5 5 5 8 9 11 5 5 100 100
100 100 100 100 81 18 7 87 100 100 94 19 11 11 5 5 4 5 57 68 5 11 5 5 5 5 5 5 8 10 10 12 99
13 96 100 100 100 100 97 41 100 100 100 94 92 40 34 52 21 5 52 100 96 70 10 72 84 65 5 5 5 33 24 87 65
0 0 4 13 20 28 5 18 100 100 100 100 100 100 100 88 30 72 55 67 80 70 100 100 100 100 44 68 96 81 5 61 100
2 0 0 0 0 0 0 0 29 14 89 100 99 100 100 100 100 80 57 11 27 21 13 88 100 100 100 100 95 82 80 100 100
5 5 5 4 5 6 4 0 0 0 4 21 15 10 12 34 30 98 100 96 70 55 42 68 100 100 100 100 100 100 95 92 98
100 97 20 39 55 96 98 50 32 5 4 5 5 5 5 4 0 0 34 98 100 99 94 96 100 100 100 84 24 44 66 100 53
100 73 87 52 100 99 100 68 32 5 14 15 9 5 5 1 5 5 5 0 0 3 97 100 100 100 100 100 99 45 16 21 18
5 6 76 99 100 100 100 88 29 30 21 55 96 10 7 6 5 4 5 5 1 2 0 2 12 64 99 100 100 98 88 100 100
3 8 63 62 98 100 100 100 100 100 70 100 100 89 97 88 5 4 5 5 5 5 5 2 3 4 4 3 2 4 5 5 11
3 6 92 96 100 99 100 100 100 100 100 100 100 100 100 98 16 52 91 62 5 5 5 54 5 7 25 96 80 78 5 0 5
59 4 89 36 92 94 100 100 100 100 100 100 100 91 100 100 94 100 100 100 100 40 36 31 5 5 5 5 14 5 5 1 0
68 7 2 20 2 58 98 100 100 100 100 100 100 100 100 100 100 100 100 15 18 81 39 81 70 18 5 6 5 0 0 5 5
5 5 27 4 3 84 24 100 100 100 100 100 100 100 74 96 100 100 100 100 74 96 52 96 91 88 66 5 51 12 5 29 86
53 22 14 16 48 75 100 100 100 100 100 100 100 100 99 100 82 98 58 100 94 97 97 100 15 93 90 89 84 100 82 58 98
100 43 12 47 38 98 65 24 100 100 100 100 100 100 100 100 100 82 74 68 38 18 43 19 27 87 60 99 100 96 85 97 100
17 98 78 20 5 6 92 24 97 100 100 100 100 100 100 100 95 96 37 41 8 5 12 100 77 62 100 99 88 100 100 100 100
100 100 99 5 5 7 7 5 63 99 100 100 99 100 100 100 100 92 68 57 5 40 56 93 98 40 62 91 93 100 100 82 100
100 93 96 92 65 48 3 18 100 91 100 100 100 100 100 100 45 99 100 98 95 60 66 100 96 73 74 100 100 100 100 89 38

GFSFLT1_prec_cloud_117.txt.gz
Cloud_Cover
100 94 100 84 30 64 36 14 5 5 5 5 5 5 4 0 5 3 4 1 5 6 6 5 5 10 5 5 5 5 5 5 5
100 96 100 100 95 88 79 30 32 5 5 6 23 73 59 15 32 26 5 3 5 5 41 10 14 14 10 9 14 6 11 68 40
69 100 100 93 100 100 100 100 100 100 82 98 89 83 100 18 21 70 65 41 10 5 46 76 27 8 8 6 93 76 5 34 10
0 1 8 63 94 100 100 100 100 100 100 100 100 100 100 99 94 58 40 90 100 73 44 97 100 100 100 100 100 96 63 60 27
0 0 2 1 4 5 5 32 67 99 100 53 60 100 100 100 100 100 89 79 64 63 29 5 21 76 74 82 100 100 100 100 100
0 2 5 5 5 1 0 0 0 1 3 1 5 18 36 73 96 100 100 99 99 100 100 56 18 5 14 5 6 79 100 100 100
0 3 5 4 3 5 5 30 4 5 1 16 4 7 5 5 5 5 15 32 100 100 100 97 89 75 25 5 5 60 100 100 66
0 0 4 2 3 10 5 13 5 5 2 17 31 13 5 5 5 5 0 0 0 4 51 79 100 99 83 87 81 49 65 56 56
8 0 0 5 6 39 100 92 29 5 60 39 2 12 8 70 5 5 5 2 1 5 0 0 0 1 73 98 100 100 100 100 100
99 95 3 4 7 64 26 26 28 52 6 5 93 100 22 81 85 16 5 5 5 5 5 0 30 2 4 1 0 0 1 1 1
12 52 10 0 4 12 8 25 46 72 78 26 24 47 86 100 100 89 6 5 5 5 5 9 30 7 17 5 4 5 5 18 5
2 1 5 14 5 8 36 69 30 34 55 47 58 88 94 97 100 100 98 48 40 89 5 5 5 5 5 12 53 5 4 0 2
10 3 5 29 11 6 23 34 69 69 100 100 100 100 77 95 99 100 100 100 82 100 68 44 54 5 17 5 5 5 5 5 0
2 1 1 38 71 60 14 26 13 74 99 100 100 100 100 100 100 100 100 100 100 99 100 97 86 58 16 34 15 5 5 5 2
25 4 7 11 7 24 14 3 23 43 98 100 100 100 100 100 100 100 100 100 100 100 64 100 100 86 58 53 94 65 7 5 5
14 36 19 8 6 3 17 50 74 74 44 100 100 100 100 100 100 100 100 100 100 100 100 64 56 100 100 100 71 100 28 21 54
8 7 7 62 98 59 72 96 88 71 92 98 100 100 100 100 100 100 98 82 80 100 100 68 100 32 99 100 92 100 46 30 86
0 0 3 8 21 6 75 99 98 100 100 100 100 100 100 99 100 100 100 93 100 99 96 89 97 96 100 65 100 100 100 90 96
41 13 49 100 100 82 84 34 40 24 83 99 100 100 100 100 100 100 100 100 100 89 84 60 50 99 100 100 100 100 100 99 97
100 50 77 100 98 100 100 100 100 66 38 44 56 36 96 100 100 100 100 100 100 100 100 86 100 83 90 100 100 100 100 100 100

GFSFLT1_prec_cloud_120.txt.gz
Cloud_Cover
99 100 100 98 90 47 98 47 15 5 5 5 1 4 5 5 68 78 33 11 5 5 5 5 3 4 8 6 4 4 5 82 46
0 1 15 67 100 100 46 6 61 25 42 87 72 6 13 5 25 77 98 75 16 6 8 7 12 5 5 12 8 6 6 85 14
0 0 0 3 5 97 100 72 87 100 100 100 100 100 98 72 45 31 50 48 72 95 94 99 55 8 59 93 100 100 100 100 94
0 0 0 0 0 4 79 67 70 100 100 100 100 100 100 100 100 100 100 100 100 82 61 68 89 80 54 12 24 18 66 71 80
0 0 0 0 0 0 0 0 5 5 32 63 94 97 100 99 91 100 100 100 100 100 100 98 98 100 100 100 55 42 5 5 5
0 0 0 0 0 0 4 3 4 1 3 1 0 4 3 0 5 4 68 91 100 100 100 100 100 100 100 38 10 39 28 41 28
5 2 0 0 0 0 0 2 5 27 15 9 12 23 5 2 3 5 4 1 10 34 88 45 39 99 100 100 100 99 94 69 77
3 13 5 1 5 4 0 0 1 4 8 43 26 24 6 12 5 4 5 5 4 0 0 0 2 12 52 100 100 100 100 100 100
12 0 2 5 5 5 6 8 5 8 3 1 41 15 6 39 100 18 5 5 5 5 4 0 2 2 5 1 4 4 0 2 5
100 99 51 36 5 4 19 25 24 30 16 7 5 7 10 11 77 100 91 14 11 43 5 5 5 5 5 5 9 5 5 2 1
3 78 38 89 100 2 2 26 34 34 30 8 5 9 5 22 57 84 100 100 10 24 43 8 5 5 1 5 5 1 5 5 5
2 3 23 19 47 24 37 61 76 65 65 54 54 74 77 37 43 35 94 100 100 100 80 54 5 7 17 86 97 15 5 5 5
0 24 37 5 34 39 80 100 100 100 100 100 99 66 66 100 93 90 97 88 68 87 98 100 81 100 100 24 92 26 5 5 5
7 4 10 20 14 88 94 100 100 100 100 100 100 79 74 86 99 100 100 100 100 100 100 100 100 86 100 100 100 69 39 27 5
20 12 24 7 52 42 70 100 100 100 100 100 100 64 100 100 100 100 100 100 100 100 100 100 99 99 100 100 100 99 48 100 88
0 1 46 71 65 31 18 24 52 100 100 100 100 72 59 100 100 100 100 100 100 100 100 100 100 100 100 100 100 100 100 100 100
0 1 5 60 100 99 52 28 28 61 98 99 91 43 18 100 100 100 100 100 100 100 100 100 100 100 100 59 100 100 100 100 98
69 12 5 11 97 99 56 39 21 98 100 98 100 72 95 100 100 100 100 100 100 100 100 100 100 100 98 100 100 100 100 100 100
100 89 23 0 2 82 78 95 96 100 100 100 100 100 79 100 100 100 100 100 100 100 100 100 100 100 100 100 100 59 66 98 100
100 100 100 67 72 14 100 98 100 100 100 100 98 98 62 64 100 100 100 100 100 100 100 100 100 100 100 100 100 100 72 93 100

GFSFLT1_prec_cloud_123.txt.gz
Cloud_Cover
5 0 0 5 5 5 6 84 98 80 61 5 5 5 5 5 5 5 15 45 40 62 63 6 5 5 9 5 0 3 5 5 9
0 0 0 2 3 3 4 5 10 77 100 100 37 5 5 5 64 38 77 94 41 63 64 31 6 13 28 25 13 5 88 92 100
0 0 0 0 0 0 0 0 7 12 49 78 100 100 100 100 100 100 100 98 73 81 94 77 32 37 48 72 97 80 5 14 71
0 0 0 0 0 0 0 0 0 10 76 23 40 68 100 100 100 100 100 100 100 100 100 100 100 100 100 100 71 16 22 27 5
0 0 0 0 0 0 0 0 0 0 9 33 5 5 5 15 64 94 98 100 100 100 100 100 100 100 100 82 100 100 100 100 100
0 0 0 0 0 0 0 0 0 0 1 12 2 1 4 1 5 0 0 5 3 8 97 100 100 100 100 100 100 100 100 100 100
1 0 0 0 0 0 0 0 0 0 8 20 78 30 16 15 5 5 1 5 5 3 12 8 47 98 100 99 100 100 100 100 100
90 30 10 2 0 0 0 2 8 10 24 23 18 74 58 46 43 6 5 3 5 5 5 3 0 0 0 0 4 1 6 10 26
2 32 4 29 3 0 8 5 12 30 23 17 21 18 22 18 5 5 5 23 5 5 5 10 5 4 5 5 4 2 6 5 5
38 31 0 76 100 50 3 26 35 46 43 49 25 16 10 17 5 4 5 5 5 13 100 41 9 5 5 5 5 5 5 5 5
10 12 36 9 35 100 100 74 32 46 53 68 60 22 5 9 5 5 5 5 50 88 74 100 100 32 50 5 5 5 2 5 0
0 0 34 9 1 19 94 64 88 90 99 97 100 58 13 5 14 46 84 11 6 60 41 35 81 100 95 45 50 31 5 5 5
0 0 15 10 32 53 82 94 100 100 100 100 100 100 100 100 56 90 28 95 66 98 99 78 100 99 18 80 97 98 24 5 7
3 32 38 27 45 80 93 58 100 53 87 86 100 100 100 100 100 100 100 100 100 100 100 99 100 100 53 83 50 100 86 10 64
0 0 0 10 66 93 100 99 15 51 17 100 100 100 100 100 100 100 100 99 87 100 100 100 100 100 100 100 100 100 98 48 53
100 100 92 13 3 2 100 100 98 78 91 93 100 100 100 100 100 100 100 100 100 100 100 100 100 100 100 100 100 100 100 100 100
49 62 100 100 56 4 2 85 100 71 63 49 76 83 100 100 100 100 100 100 100 98 100 100 100 100 100 100 100 100 100 100 100
22 68 100 100 100 100 100 100 100 100 73 17 95 100 99 100 100 100 100 100 100 100 100 100 100 100 100 100 100 100 100 100 100
1 29 100 100 100 100 97 100 100 100 100 100 43 100 100 100 100 100 100 96 100 100 100 100 100 100 100 100 100 100 100 100 100
75 23 100 100 100 100 100 78 100 100 80 62 100 84 71 100 87 100 95 100 100 100 100 100 100 100 100 100 100 100 100 100 100

GFSFLT1_prec_cloud_126.txt.gz
Cloud_Cover
0 3 0 0 0 0 0 0 5 25 13 5 6 19 8 5 5 5 5 5 12 24 6 58 6 5 5 3 5 5 5 5 17
0 0 0 0 0 0 0 0 0 2 5 6 5 72 97 100 54 5 13 42 99 100 100 100 31 48 9 5 9 47 48 5 28
5 4 0 0 0 0 0 8 0 1 0 0 4 5 5 67 100 99 100 100 100 100 100 100 92 100 96 49 12 78 100 100 88
0 1 2 2 0 0 0 0 0 0 1 0 10 5 6 21 84 100 100 100 100 100 66 99 100 100 100 100 100 100 100 100 57
0 0 0 0 0 0 0 0 0 0 0 0 30 85 0 15 15 6 22 59 100 100 100 100 100 100 100 100 100 100 100 100 100
0 0 1 0 0 0 0 0 0 0 0 0 1 43 26 9 9 6 5 5 4 5 5 4 58 94 77 100 100 100 100 100 100
6 17 1 2 5 2 0 0 0 0 7 12 0 1 20 13 5 6 5 5 3 5 11 6 0 0 0 3 26 90 100 100 100
73 94 33 22 44 54 2 4 6 12 27 27 19 40 39 100 15 5 5 5 5 5 5 5 10 2 3 3 2 2 2 1 0
3 26 11 32 21 20 60 89 3 17 30 26 34 39 42 19 59 12 5 5 19 37 42 6 5 5 5 5 5 4 5 5 0
2 0 2 12 11 12 22 67 68 25 50 55 66 62 56 23 13 2 5 5 6 80 100 64 7 16 17 9 15 4 0 3 5
0 6 1 2 9 7 14 13 48 54 35 26 64 100 84 48 34 5 5 41 5 11 50 40 9 52 100 45 58 89 5 2 5
0 0 0 1 2 28 52 42 42 99 99 96 74 100 100 100 96 52 16 65 54 26 18 34 73 38 26 100 100 96 97 17 5
1 13 24 16 23 24 85 100 97 94 100 100 95 99 100 100 100 100 99 100 93 82 85 100 99 99 50 5 45 62 100 70 100
92 73 38 2 15 11 0 38 58 27 59 100 94 82 93 100 100 100 100 100 100 100 100 79 100 92 84 61 30 95 97 82 100
95 94 41 57 99 52 7 0 2 99 94 97 49 14 42 75 100 100 100 100 100 100 100 100 100 100 100 100 100 100 100 100 100
0 18 97 99 46 100 86 30 4 0 28 100 100 78 99 100 89 100 100 100 100 100 100 100 100 100 100 100 100 100 100 100 100
0 40 99 100 100 94 100 84 47 31 0 100 97 99 65 77 100 100 100 100 100 100 100 100 100 100 100 100 100 100 100 100 100
0 0 52 99 100 100 100 100 100 100 92 48 100 68 100 21 60 99 100 100 100 100 100 100 100 100 100 100 100 100 100 100 100
20 0 0 45 61 100 100 100 100 100 100 100 98 48 53 100 18 61 100 100 100 100 100 100 100 100 100 100 100 100 100 100 100
100 56 68 8 28 100 100 100 100 100 100 100 94 99 100 100 100 59 100 64 98 100 100 100 100 100 100 100 100 100 100 100 100

GFSFLT1_prec_cloud_129.txt.gz
Cloud_Cover
63 90 5 0 0 2 2 0 0 0 0 1 4 5 5 5 5 34 27 10 7 5 5 5 5 72 99 94 5 5 5 5 19
5 2 63 85 8 3 0 0 6 0 1 0 0 0 5 7 14 22 82 98 45 18 5 5 7 5 93 87 41 10 22 36 14
0 2 0 0 4 4 10 3 3 0 0 0 1 0 14 38 4 4 5 71 99 99 92 100 100 100 98 5 14 30 38 72 80
0 0 0 0 0 0 1 8 16 5 4 0 0 4 33 100 44 5 3 5 10 71 100 100 93 97 100 100 97 84 90 100 100
0 0 0 0 0 0 0 0 0 0 5 5 5 7 5 55 100 100 9 1 3 5 6 24 32 100 100 100 100 100 100 100 100
2 3 4 2 1 4 5 0 0 0 0 2 3 8 62 12 43 65 99 21 5 5 1 1 4 5 8 4 31 84 100 100 100
5 9 5 5 5 5 5 40 55 9 0 0 2 4 72 75 24 5 0 52 16 5 5 7 3 2 1 74 0 0 1 0 4
0 0 1 5 5 1 1 0 26 27 15 5 15 10 49 74 39 5 6 5 47 13 5 5 5 5 34 54 4 0 0 3 4
0 0 0 0 0 0 0 0 0 6 45 53 42 2 22 66 48 26 0 24 14 69 20 38 70 19 5 17 82 5 0 1 4
0 0 0 0 0 0 0 0 0 2 7 39 69 22 4 28 69 48 2 5 76 70 32 25 6 81 92 21 7 26 5 4 5
0 0 0 0 0 0 0 0 0 0 14 34 87 55 24 15 42 23 20 17 20 100 58 5 25 23 100 85 96 14 5 5 7
1 0 0 0 0 0 0 0 0 9 3 17 65 74 66 61 93 73 58 94 100 97 100 77 13 16 81 84 100 83 63 6 5
100 97 68 22 16 9 0 0 0 0 0 0 0 51 100 100 100 98 100 100 100 100 100 100 86 84 48 99 71 99 79 27 10
8 45 16 14 16 0 5 24 15 6 0 0 0 0 42 100 100 100 100 100 100 100 100 100 100 98 96 100 99 100 95 100 38
24 6 73 100 100 96 27 8 30 36 13 0 0 61 61 49 37 67 100 100 100 100 100 100 100 100 100 100 100 94 100 100 100
0 22 100 100 100 100 100 51 90 33 22 1 0 0 53 100 29 53 100 97 51 100 100 100 100 100 100 94 100 100 100 100 100
0 1 30 46 100 100 100 100 100 53 15 31 26 14 2 0 0 26 91 98 99 94 100 100 100 100 100 100 100 99 100 100 100
0 0 4 21 81 92 82 99 100 100 80 23 93 80 14 3 20 61 92 100 100 100 100 100 100 100 100 100 100 100 98 100 100
0 0 0 0 22 42 50 54 93 100 100 98 41 48 82 78 3 18 44 61 100 100 100 100 100 100 100 98 100 100 100 100 100
0 0 0 0 5 0 29 21 35 100 100 100 100 77 99 100 100 100 96 30 30 81 100 100 100 100 100 100 100 100 100 100 100